GFSSW_sfc_temp_000.txt.gz
Temp
61 61 62 62 62 61 61 61 60 60 60 60 59 59 59 59 58 69 77 81 81 70 73 87 89 88 87 84 87 87 70 68 71 72 73 81 78 84 86 82 84 85 84 84 85
61 62 62 62 61 61 61 61 60 59 59 59 59 59 59 59 69 80 79 72 70 68 84 85 84 87 83 83 85 80 72 73 80 80 77 79 80 80 79 78 79 81 86 85 84
61 61 62 62 62 61 61 60 60 59 59 59 59 58 58 60 74 83 71 73 72 70 87 92 92 88 81 85 83 81 72 78 79 80 83 80 80 83 79 75 80 78 81 82 81
61 61 61 61 61 61 60 60 59 59 59 58 59 59 59 67 67 88 72 74 71 85 89 90 89 82 80 78 85 76 81 81 80 82 81 79 82 79 80 80 85 85 85 83 81
59 59 59 61 61 61 60 59 59 58 57 57 58 58 65 73 81 94 80 78 85 88 89 89 85 84 79 82 82 78 79 81 82 81 81 81 79 79 79 85 87 88 86 83 82
58 58 58 59 60 60 59 58 57 56 56 57 57 57 69 70 95 97 97 97 97 94 93 92 88 89 84 82 80 82 81 80 81 80 80 77 78 79 82 86 84 85 84 84 84
58 58 58 59 59 59 59 58 56 56 56 57 57 67 76 79 96 98 97 95 96 95 90 93 93 87 86 79 85 82 75 78 78 79 77 80 73 74 83 85 83 83 83 85 85
59 58 57 57 58 58 57 56 56 56 56 56 56 70 75 94 96 95 97 94 97 97 94 94 94 88 84 86 81 75 76 68 77 79 79 77 67 79 84 82 80 82 83 84 86
59 58 57 57 57 57 56 56 56 56 56 56 63 73 76 84 88 94 95 90 93 93 93 93 91 84 82 74 70 72 65 68 70 80 78 76 70 80 84 82 80 82 83 84 84
60 59 58 57 57 56 56 56 57 56 59 71 79 75 84 81 88 90 95 92 88 87 85 84 83 77 76 72 59 63 67 70 69 74 75 73 74 78 81 81 79 81 82 83 83
60 60 58 57 57 56 56 67 72 73 81 79 80 80 83 89 91 89 91 89 87 83 74 80 73 66 69 72 72 72 70 69 72 75 71 72 72 75 79 80 78 79 79 80 79
59 60 59 58 57 56 61 77 80 84 72 83 83 83 86 90 80 85 92 81 79 72 78 74 66 72 75 74 72 71 68 68 72 74 71 72 71 74 76 76 77 77 77 77 77
58 59 59 58 56 59 77 81 89 86 74 77 82 81 81 87 78 79 84 83 77 74 74 66 69 74 72 71 68 70 66 64 64 71 74 70 67 69 74 76 76 77 77 77 75
57 58 58 56 60 83 81 87 87 84 66 68 75 79 83 84 74 86 86 80 77 72 73 69 73 70 70 68 67 63 68 66 65 63 58 71 55 65 69 69 71 72 73 74 75
57 59 56 54 68 81 82 87 86 80 47 71 74 87 84 76 78 78 87 81 72 71 71 66 68 68 66 65 68 64 68 66 66 63 63 65 59 63 70 65 67 69 71 72 73
58 60 56 67 73 83 85 84 80 57 46 65 75 74 73 76 76 79 79 83 80 74 73 69 75 71 68 70 70 71 67 67 66 63 50 62 60 54 62 64 66 69 70 72 72
59 58 64 81 76 83 82 78 58 50 70 64 67 72 71 68 72 74 71 69 66 60 61 68 67 71 72 66 71 70 64 50 46 47 46 62 58 57 66 68 69 68 69 70 71
60 58 69 83 85 81 78 67 50 64 65 74 71 71 66 69 68 70 69 64 69 67 65 59 52 66 71 65 62 64 62 48 39 41 48 62 54 56 67 69 70 70 70 71 70
58 76 79 78 81 80 72 53 56 65 72 68 70 64 63 67 68 67 65 63 64 67 59 58 56 68 68 69 68 62 55 63 51 47 43 55 59 64 67 66 68 68 69 69 70
77 77 78 80 81 75 64 55 66 74 75 73 62 66 61 64 64 65 63 66 64 67 71 62 54 65 67 69 69 65 67 52 53 38 37 49 53 50 59 63 66 66 67 69 70
73 71 74 81 78 71 59 63 68 75 74 70 67 64 66 63 66 63 62 65 68 67 70 65 60 58 65 61 59 61 59 59 58 50 40 39 48 64 63 64 63 65 68 68 68
74 64 76 79 66 68 65 69 62 70 74 71 72 69 66 65 63 62 60 62 68 68 60 62 58 48 58 65 67 64 60 59 44 44 45 42 45 67 66 65 65 65 66 67 67
70 69 77 76 58 57 68 68 72 69 70 69 66 69 70 65 57 63 61 65 66 64 58 61 55 46 52 58 64 59 62 60 55 46 41 37 44 67 61 64 66 65 65 65 65
74 59 69 71 73 67 65 64 63 72 69 71 68 70 66 63 66 60 58 62 65 63 53 58 59 50 45 52 59 54 58 61 57 43 43 45 51 59 61 60 63 64 63 63 63
74 66 71 56 63 69 70 68 64 61 70 71 66 67 64 56 61 59 62 60 63 55 61 61 49 53 55 58 59 57 57 58 55 54 44 50 53 59 61 61 59 60 61 60 59
69 68 71 69 70 68 59 66 66 67 66 65 65 67 67 56 61 58 63 62 60 62 61 60 46 43 43 57 57 51 56 57 57 58 57 56 54 64 61 61 58 57 57 56 56
76 76 73 58 67 64 62 66 67 67 66 72 70 66 57 63 66 66 66 66 65 60 55 47 44 43 40 47 44 38 47 56 58 60 57 46 56 60 56 57 57 56 56 54 54

GFSSW_sfc_temp_003.txt.gz
Temp
61 61 61 61 61 61 61 61 60 60 60 60 60 59 59 59 58 60 65 73 74 68 71 77 76 76 75 72 75 74 59 55 60 65 62 69 69 73 75 75 74 73 73 73 76
62 62 62 61 61 61 61 60 59 60 59 59 59 59 59 58 60 68 77 72 70 68 76 75 73 76 67 69 71 66 57 61 70 69 65 68 68 72 70 70 69 70 75 77 76
62 61 61 61 61 61 61 60 60 59 59 59 58 59 58 59 62 74 73 71 69 69 76 79 80 76 69 68 69 65 61 68 70 72 72 68 70 72 67 63 69 67 70 73 73
60 60 60 61 61 61 60 60 59 59 59 58 58 58 59 58 59 74 72 70 69 75 76 78 76 69 66 63 71 64 71 72 70 73 72 69 70 68 65 68 75 75 75 74 72
59 59 59 60 60 60 60 59 59 59 58 57 57 58 57 61 69 86 72 72 75 78 77 76 74 71 67 68 71 68 69 72 73 73 70 75 69 69 68 74 76 76 77 74 74
58 58 58 58 59 60 59 59 58 57 56 56 57 57 57 61 86 90 87 78 81 79 80 79 78 81 76 72 68 71 71 69 70 68 69 68 67 69 69 74 77 76 73 73 75
58 58 58 58 59 58 59 58 57 56 56 56 57 59 65 69 84 83 88 83 83 83 80 81 81 75 73 69 75 73 65 67 68 69 68 69 61 64 70 74 74 74 73 72 76
58 58 57 57 58 58 58 57 56 56 55 56 56 58 63 86 80 86 85 85 88 88 84 83 83 76 72 72 72 65 62 55 65 69 70 67 55 65 72 72 68 70 73 74 74
58 58 57 56 56 57 56 56 55 55 55 56 53 58 65 80 80 84 83 82 84 85 81 89 79 70 72 61 56 58 51 56 62 70 67 63 57 67 70 71 69 67 69 71 70
58 58 58 57 56 55 55 56 57 55 56 62 67 62 73 75 81 82 82 84 79 78 76 72 68 61 60 56 49 52 56 56 56 62 64 60 58 64 70 70 68 63 64 66 67
58 59 58 57 56 55 54 53 58 59 60 65 69 70 77 80 82 79 83 80 78 72 62 68 58 52 56 61 64 62 59 57 57 67 61 61 59 63 66 64 64 64 65 66 67
59 58 58 57 56 56 53 59 67 68 60 74 78 76 81 81 74 78 82 70 69 62 66 61 54 63 68 66 63 63 59 55 61 67 61 57 57 62 66 64 63 65 64 64 65
58 59 58 57 56 53 56 67 76 71 60 70 76 76 76 79 71 72 76 72 68 64 61 56 61 70 67 62 60 59 56 55 56 62 61 57 54 59 64 67 68 66 65 65 64
57 58 56 54 56 62 63 74 74 68 51 63 69 73 78 77 68 78 77 72 68 61 63 61 67 66 63 61 60 54 62 61 59 54 46 57 41 54 60 60 63 63 61 62 63
57 58 55 57 58 65 71 74 72 66 32 66 69 81 77 70 71 71 77 73 63 64 63 58 60 60 59 60 63 57 61 59 57 52 49 53 46 53 61 56 58 59 61 60 60
58 58 55 58 56 68 71 70 66 44 35 61 70 68 67 70 70 73 71 73 71 66 64 61 66 62 61 66 64 65 60 58 56 51 36 51 48 47 51 56 57 60 62 61 60
57 57 57 70 63 70 67 63 44 35 64 59 62 67 65 63 66 67 64 60 55 50 51 60 60 63 66 58 62 59 51 35 35 31 33 54 50 45 56 60 60 58 58 59 60
58 58 63 71 69 68 64 54 36 58 59 68 65 65 60 64 63 64 60 54 60 58 53 49 43 58 64 59 53 54 52 35 31 27 37 53 44 46 59 61 62 63 61 61 60
58 62 64 66 70 66 58 39 44 56 67 63 64 58 58 63 60 60 55 54 57 58 51 48 49 61 63 63 60 55 44 54 41 35 32 43 49 56 60 60 62 61 62 59 58
60 61 63 68 69 63 50 46 58 68 69 66 56 60 53 58 57 57 55 59 58 61 61 56 46 59 62 62 62 57 60 42 39 30 29 39 43 42 52 54 60 58 57 58 59
59 57 63 69 66 56 42 50 63 69 68 63 60 58 60 57 59 56 55 59 61 61 60 55 50 50 58 53 51 53 51 51 49 38 28 25 37 52 53 55 54 55 56 55 56
58 51 65 65 52 51 50 62 60 64 68 65 63 63 59 59 56 55 52 56 62 60 53 54 47 34 50 58 61 56 52 51 32 35 32 29 34 54 55 57 57 58 58 56 56
56 56 65 63 41 40 59 63 66 64 64 63 61 63 63 56 50 54 54 59 59 56 50 52 43 32 43 51 56 52 56 53 46 35 34 26 33 57 58 58 61 54 55 55 55
57 46 55 56 57 56 59 57 58 65 64 66 63 62 59 56 58 51 52 58 58 56 51 53 51 40 33 43 49 45 52 53 46 31 34 34 43 51 52 52 52 52 53 52 52
60 52 55 40 48 55 58 60 57 55 63 64 59 60 57 48 52 49 53 54 56 54 55 52 39 43 47 50 52 51 50 51 48 45 35 42 46 48 49 50 51 52 53 52 51
57 55 57 54 58 55 51 57 58 61 60 59 57 60 58 49 52 48 54 53 51 55 52 49 35 34 35 49 48 43 47 48 49 51 49 48 45 52 52 52 51 50 50 49 49
61 61 58 49 53 49 48 58 60 59 59 63 59 53 47 53 54 55 56 56 55 52 44 38 32 32 31 39 36 31 40 48 51 51 49 36 46 50 48 49 46 46 48 47 47

GFSSW_sfc_temp_006.txt.gz
Temp
62 62 61 61 60 60 61 61 60 60 60 59 59 60 59 58 57 57 59 69 68 68 69 72 73 72 67 63 67 67 55 52 57 61 65 70 69 69 70 70 68 68 68 73 71
62 62 62 62 61 61 61 61 60 59 59 59 59 59 58 58 57 61 71 69 68 68 74 72 69 70 63 61 66 62 55 57 67 68 65 66 69 70 68 65 63 65 71 72 72
61 62 62 61 61 61 61 60 59 60 59 59 59 58 58 58 59 69 71 72 68 69 73 75 74 72 64 61 63 59 58 66 67 71 70 66 68 69 66 59 66 65 67 69 70
60 60 60 61 61 61 61 59 59 59 59 58 58 58 58 55 56 73 72 70 68 71 72 74 71 66 62 63 65 59 64 68 68 68 67 66 68 66 62 67 71 72 72 72 69
59 59 59 59 60 60 60 59 59 58 58 57 58 58 55 58 65 81 71 69 72 75 72 72 70 69 64 65 67 62 64 68 69 69 66 70 66 67 63 68 73 73 73 71 71
58 58 58 58 59 59 59 58 58 58 57 57 57 57 54 57 79 82 79 75 76 74 75 73 73 74 69 66 64 66 67 66 67 65 66 66 63 66 65 67 70 71 69 71 72
58 58 58 58 58 58 59 58 57 57 56 56 57 57 58 64 78 77 81 78 77 76 74 78 76 71 68 67 69 67 61 62 61 63 62 67 58 59 68 69 68 69 70 70 72
57 58 57 57 58 58 58 57 57 56 56 56 56 55 60 80 77 81 79 81 83 83 80 78 78 73 69 68 68 63 58 52 61 64 65 63 53 63 65 68 65 66 68 69 69
57 57 57 56 56 57 57 56 55 55 56 56 52 54 62 79 77 83 79 78 80 82 79 85 76 67 67 57 53 54 48 51 57 65 62 59 54 62 65 67 65 62 60 62 63
57 57 57 56 56 55 55 55 57 56 55 60 63 57 69 71 77 78 79 79 74 75 73 72 63 58 56 53 45 49 51 47 54 58 60 56 53 60 61 61 59 58 60 61 61
57 57 57 56 56 55 54 51 55 56 58 63 65 65 71 75 77 75 78 77 73 70 59 64 57 51 54 57 60 60 54 52 53 62 60 56 54 55 57 60 59 59 60 60 60
57 57 57 56 56 55 52 58 63 65 58 68 69 70 76 75 69 73 77 67 65 59 61 57 51 60 64 63 60 58 55 53 58 64 59 55 52 55 59 58 60 59 59 59 59
56 57 57 56 55 53 55 62 70 67 57 67 72 72 72 75 67 67 71 67 63 59 57 53 59 65 63 58 57 54 53 51 53 56 58 57 51 54 58 60 60 59 59 60 59
56 57 56 55 55 57 59 70 68 66 48 59 66 70 75 73 65 73 74 68 65 58 59 58 64 62 58 57 55 49 57 57 55 50 45 52 38 49 53 55 57 57 56 58 58
56 56 54 55 56 60 69 69 66 64 30 62 65 77 73 67 68 67 73 69 59 61 59 54 57 57 55 56 58 54 58 55 54 48 45 48 42 47 54 51 52 52 55 55 56
56 56 54 55 54 63 66 63 63 42 34 58 66 64 62 65 65 68 67 70 67 62 60 58 61 59 56 61 60 60 55 54 51 47 35 47 44 43 46 52 54 55 55 56 55
56 56 55 66 62 66 63 59 42 34 59 56 58 63 61 59 61 63 59 55 51 48 48 56 56 60 62 56 59 56 47 34 34 30 32 50 43 43 53 57 57 54 54 55 55
56 54 57 66 65 64 60 51 35 53 55 62 61 60 57 60 58 59 56 50 56 54 49 45 41 55 61 55 51 52 48 34 31 27 35 48 39 44 56 58 59 60 57 57 57
56 56 60 63 66 62 55 36 43 52 62 60 60 54 54 59 58 56 51 51 53 53 48 45 46 57 58 59 56 52 43 51 38 32 31 39 45 52 57 57 61 61 61 54 53
58 58 59 64 63 58 47 43 53 61 63 62 52 56 50 55 54 53 51 55 54 57 56 51 44 55 59 60 59 54 56 41 36 29 27 36 39 41 48 52 54 51 50 52 53
57 55 61 64 61 52 40 46 58 64 64 60 56 55 56 53 55 51 51 55 57 57 56 51 48 48 54 50 48 50 47 46 44 34 28 24 34 48 50 52 49 50 51 51 51
54 48 61 62 50 45 46 57 59 61 64 62 60 58 56 55 51 49 49 52 57 55 50 51 44 32 46 55 57 53 49 46 31 35 29 27 34 52 51 53 53 53 53 53 52
52 52 61 59 39 34 53 60 61 59 59 59 57 59 58 53 46 50 51 54 56 53 48 50 40 31 40 48 52 50 51 49 42 33 33 25 31 53 52 52 52 49 50 50 49
53 44 51 52 50 51 51 54 55 61 60 61 59 60 56 52 53 48 49 54 55 54 50 51 45 39 33 40 45 41 47 47 43 29 33 32 41 45 46 47 48 48 47 46 47
54 48 52 38 44 51 54 56 54 53 59 61 57 57 54 45 48 46 50 51 54 53 52 48 38 41 44 46 46 45 45 45 44 42 35 40 41 44 46 46 47 48 48 48 47
54 51 51 48 54 52 49 53 55 56 57 55 53 55 54 46 50 46 50 49 48 51 48 45 35 33 35 44 43 40 44 44 45 47 45 42 40 47 48 47 46 46 46 46 48
60 56 55 45 48 46 45 55 55 57 56 59 54 49 46 50 51 51 52 52 52 49 40 37 31 30 30 35 34 31 40 45 46 46 46 37 42 46 44 44 43 43 45 45 45

GFSSW_sfc_temp_009.txt.gz
Temp
62 62 61 61 61 61 61 60 60 60 59 60 59 59 59 58 57 55 54 67 65 67 68 68 68 69 68 61 62 60 51 48 55 58 62 70 65 68 69 67 67 66 65 70 68
62 62 62 61 61 61 60 60 60 59 60 59 59 59 58 58 54 56 67 68 67 67 71 69 67 67 60 59 60 57 48 54 65 65 65 68 66 68 65 62 61 63 67 69 67
61 61 61 61 61 61 60 59 60 59 59 59 59 58 58 58 54 65 70 70 68 68 72 73 71 68 59 58 58 58 57 62 64 72 72 68 64 65 62 56 62 62 63 65 65
60 60 60 60 60 60 59 59 59 59 58 59 58 58 58 53 54 70 71 68 68 72 72 71 66 61 59 58 61 54 64 64 66 68 67 65 66 64 60 65 67 70 68 67 66
59 59 59 59 59 59 59 59 58 59 58 58 57 57 53 55 62 77 68 68 71 72 69 69 66 65 63 62 60 59 60 63 65 67 65 68 63 65 61 65 69 71 69 68 68
58 58 58 58 58 58 58 59 58 58 58 57 57 57 52 56 76 77 72 72 73 70 68 70 69 70 64 64 62 65 61 61 62 64 64 64 60 59 60 63 66 68 68 68 69
58 57 58 58 58 58 59 58 58 57 56 56 56 57 58 64 73 72 76 73 73 72 69 73 74 69 66 60 67 65 58 59 59 59 59 63 55 56 61 65 65 67 68 67 68
57 57 57 57 58 58 58 57 57 57 56 56 56 54 59 76 73 76 74 77 78 76 76 78 75 71 66 66 63 58 55 50 59 60 59 60 52 59 62 62 61 62 61 64 63
57 57 56 56 56 57 57 56 56 56 56 56 50 52 61 77 75 80 78 76 76 77 75 81 74 63 64 56 51 51 45 48 54 62 58 56 51 59 59 61 57 56 56 59 58
57 56 57 56 55 56 55 55 56 55 55 58 59 55 66 68 74 75 77 76 72 71 71 69 61 57 54 52 44 46 48 42 51 56 56 52 50 53 55 56 52 52 54 55 55
56 57 57 56 55 55 53 51 52 53 53 60 62 63 67 74 75 73 74 75 71 66 57 60 56 49 51 53 56 54 50 50 49 58 52 48 48 50 53 54 53 53 54 54 55
56 57 57 56 55 55 50 55 62 63 55 64 65 66 70 71 65 70 74 66 64 56 58 56 50 56 60 58 57 55 51 48 54 58 54 50 47 51 54 52 54 54 54 54 56
56 57 57 56 55 52 53 61 66 65 54 63 66 67 70 72 64 64 69 64 60 56 56 51 55 62 59 55 55 51 48 49 51 53 53 52 47 49 55 55 56 54 54 56 56
56 56 55 54 52 55 57 65 65 64 46 56 62 68 71 69 63 70 70 66 61 54 56 56 59 58 56 54 53 48 54 54 53 47 41 48 34 45 49 50 52 52 53 54 56
56 56 54 56 55 57 66 65 64 62 29 58 62 74 69 65 64 66 71 66 58 57 56 52 53 54 54 53 55 52 55 52 51 45 43 44 38 42 49 46 48 50 54 56 56
56 55 52 54 51 60 63 60 62 41 33 54 62 60 61 62 62 64 65 67 64 58 57 55 58 56 54 57 56 58 53 50 47 44 33 43 40 40 43 48 49 52 54 56 53
56 55 55 62 60 63 60 58 40 32 56 53 55 59 57 56 59 58 55 53 50 46 45 53 53 56 58 53 55 53 46 33 33 29 31 45 41 41 51 53 53 53 52 52 52
55 54 54 59 61 61 59 50 34 50 52 58 58 56 54 56 55 55 52 49 53 51 46 43 39 52 58 52 48 48 46 34 31 26 34 45 36 42 52 55 56 55 53 52 53
54 53 57 60 62 59 53 35 41 49 57 57 56 51 51 56 55 53 48 48 51 51 46 43 44 55 55 56 54 48 41 47 35 31 31 36 42 50 52 52 54 54 53 49 50
56 56 57 61 60 57 46 42 50 57 59 58 50 53 48 52 51 49 48 52 51 53 53 50 42 51 56 56 55 52 53 40 34 28 25 33 36 37 46 49 50 49 47 48 49
56 53 59 60 59 51 39 44 54 62 61 57 54 51 52 50 51 47 47 51 53 54 54 49 46 45 52 48 45 48 45 42 41 32 27 23 33 45 48 49 47 45 47 48 47
52 47 59 59 49 42 45 53 56 58 62 59 57 55 52 51 48 47 47 49 53 52 48 48 42 32 44 52 53 49 45 43 30 33 28 25 32 48 48 49 49 48 48 47 48
50 50 59 58 38 32 49 55 57 57 57 56 55 55 54 49 45 47 48 52 53 51 47 48 39 31 39 46 50 46 48 44 39 32 32 23 31 49 49 48 48 46 47 47 47
50 43 49 50 47 49 49 51 52 58 57 58 56 56 53 49 49 45 47 51 52 52 50 50 42 38 33 38 42 40 44 44 41 29 32 31 37 42 43 44 44 44 45 44 45
50 46 50 38 42 48 52 52 51 50 57 58 55 55 51 43 44 43 47 49 52 51 49 47 38 39 40 42 43 42 43 43 41 40 35 38 39 43 43 43 44 45 44 45 45
51 48 48 45 51 49 46 51 53 53 54 52 52 51 51 45 49 44 48 46 46 49 44 43 34 32 34 41 40 38 43 42 42 42 41 39 38 44 45 44 44 44 44 44 46
53 53 52 41 44 45 43 52 54 54 53 55 53 49 44 47 49 49 49 49 49 47 38 35 30 30 29 33 34 30 38 43 43 44 42 34 41 43 41 43 42 42 43 44 46

GFSSW_sfc_temp_015.txt.gz
Temp
62 62 62 62 61 61 61 61 60 60 60 60 60 59 59 58 58 56 53 69 66 66 68 71 73 72 72 69 70 67 62 58 60 62 59 67 68 72 72 70 69 69 68 70 70
62 62 62 62 61 60 60 60 59 59 60 60 59 59 59 58 54 52 66 65 65 67 73 72 69 70 68 67 68 66 60 60 67 69 66 69 71 69 68 67 64 63 67 70 69
61 61 61 61 60 60 60 59 59 59 60 59 59 58 58 58 53 66 68 66 66 70 75 75 71 70 65 67 67 63 63 64 67 71 75 72 68 71 68 65 68 65 62 66 67
60 60 60 60 60 59 59 58 58 59 60 59 59 58 58 55 59 76 67 66 67 73 74 72 70 66 64 64 68 63 65 67 72 71 71 67 71 68 71 71 73 70 67 66 66
59 59 59 59 59 59 59 58 59 59 59 59 58 58 54 54 61 73 67 67 69 71 72 70 67 67 63 65 66 63 67 67 69 70 71 70 69 69 69 69 72 69 68 67 67
58 58 58 58 58 58 58 58 58 58 58 57 57 57 51 55 76 73 68 69 71 72 70 71 70 71 68 66 66 68 68 67 67 67 68 68 68 71 67 69 69 68 67 68 69
59 58 58 58 58 58 58 58 58 57 57 57 57 56 51 61 77 72 73 72 72 74 69 71 74 71 69 66 69 67 65 66 66 68 67 70 65 60 63 68 66 67 66 67 69
58 58 57 57 57 57 58 58 57 57 57 57 57 54 55 73 74 72 73 74 73 75 75 75 74 71 69 70 66 64 62 59 66 67 65 68 58 60 61 66 64 65 66 67 67
58 57 57 56 56 57 57 56 56 57 56 56 52 52 58 75 74 78 77 76 71 72 74 76 74 67 68 63 59 59 56 56 61 63 65 64 56 58 60 63 61 63 64 66 65
57 57 57 57 56 57 56 56 56 56 55 58 56 53 65 70 74 76 79 77 72 69 69 69 66 63 62 61 53 55 55 57 58 60 60 57 52 56 57 61 59 60 61 62 61
57 57 56 56 56 55 53 53 52 52 50 59 60 60 66 73 74 76 78 76 74 69 62 64 61 58 61 61 60 59 57 56 56 56 55 50 51 53 56 57 57 58 59 60 60
57 56 56 56 55 55 54 51 61 66 57 59 61 62 67 70 67 73 78 69 67 61 63 62 56 61 62 61 59 58 55 51 55 56 55 53 51 54 56 54 56 58 58 59 59
56 56 56 55 55 53 52 53 65 67 57 61 62 64 69 70 66 69 73 69 64 61 59 57 60 62 60 58 57 55 55 53 53 55 56 55 51 52 55 56 56 57 58 59 60
55 55 54 54 51 52 52 62 61 63 49 56 63 68 70 69 64 72 73 69 63 57 58 58 61 59 58 56 58 53 58 55 52 53 50 54 49 50 52 53 55 57 58 59 60
55 55 54 56 53 55 64 65 62 62 35 58 64 75 69 66 66 67 70 69 59 58 60 56 57 57 56 56 59 55 58 57 54 52 52 51 52 49 53 51 54 57 57 58 60
55 55 54 54 52 57 62 63 61 44 35 55 63 62 62 63 62 65 67 68 65 59 59 57 62 61 60 58 59 58 56 54 52 51 45 48 50 48 49 54 55 57 58 58 60
54 55 54 57 57 61 60 58 44 37 55 53 56 60 58 57 58 59 57 55 56 51 49 56 56 60 60 58 59 58 53 44 42 41 41 47 46 52 56 57 59 57 59 59 60
54 54 54 55 58 57 58 52 40 48 50 58 57 57 55 57 56 55 55 52 56 54 50 49 47 57 60 58 55 53 53 43 35 36 42 47 44 53 56 60 62 62 61 59 59
53 52 52 57 58 56 54 37 42 47 56 55 57 53 53 56 55 54 51 52 53 55 51 48 48 59 58 60 60 52 49 52 40 37 39 45 49 55 53 55 57 57 58 58 58
51 50 55 60 58 56 47 43 51 55 58 57 50 53 49 53 52 52 52 54 54 56 57 53 47 54 58 60 58 56 55 46 44 35 33 41 42 48 49 52 55 55 56 57 57
53 52 57 58 57 53 42 46 53 58 59 57 53 52 52 51 52 50 50 54 55 56 58 54 51 50 55 53 52 52 49 45 46 40 37 34 44 52 54 55 55 57 57 56 55
50 47 57 56 49 44 46 51 53 57 60 59 58 55 53 52 50 50 50 53 54 56 54 53 47 43 49 55 56 55 51 49 42 38 35 36 44 53 53 56 56 56 54 55 55
49 51 57 56 41 37 49 54 57 56 57 57 55 56 55 50 47 49 50 53 54 55 51 52 46 40 46 51 54 52 50 46 43 40 36 36 45 52 51 52 55 55 52 51 52
51 45 51 49 48 49 50 51 53 57 57 57 55 55 52 50 50 47 49 53 53 52 48 51 45 44 41 45 48 46 47 47 47 40 39 40 47 50 51 50 50 50 51 52 52
49 47 50 40 43 48 52 52 52 51 57 58 55 54 51 46 47 45 50 51 52 50 49 51 44 44 43 44 46 47 47 46 46 46 43 45 44 51 54 53 51 50 50 49 50
48 47 46 45 48 49 46 51 52 53 53 53 53 53 53 47 51 46 49 49 49 49 47 46 40 40 40 42 42 43 46 46 46 45 46 45 46 54 52 51 48 48 48 48 49
51 52 52 39 44 45 44 49 53 54 51 54 54 51 48 51 51 49 49 48 50 48 42 41 36 38 36 37 38 37 42 46 46 47 49 43 52 49 48 48 50 49 49 49 50

GFSSW_sfc_temp_018.txt.gz
Temp
62 61 62 61 61 61 61 61 60 60 60 60 60 60 60 59 58 66 65 76 74 66 67 82 83 83 83 80 81 81 72 69 69 70 69 79 75 75 81 75 75 76 77 78 77
62 62 62 61 60 60 60 60 60 60 60 60 60 60 59 58 62 66 75 67 66 66 84 81 79 81 79 78 79 76 72 71 77 78 75 75 76 77 74 73 72 74 78 78 76
62 61 61 61 60 59 60 59 59 60 60 59 59 59 58 60 63 78 69 67 66 70 87 86 84 80 75 78 76 76 72 75 76 80 81 78 76 81 76 73 76 73 72 71 73
61 60 60 60 60 59 59 58 59 60 60 60 59 59 58 62 65 86 68 66 66 82 84 82 80 75 73 71 78 71 77 76 79 80 80 77 81 77 80 79 81 80 77 74 72
59 59 59 59 59 59 58 58 58 59 59 59 58 58 62 65 73 82 67 68 79 83 82 80 77 76 72 75 75 72 75 77 78 76 81 80 77 77 78 81 83 79 78 76 75
59 58 59 58 58 58 58 58 58 58 58 58 58 57 61 64 86 85 81 79 82 82 81 82 79 80 76 73 74 76 75 75 75 78 77 76 75 78 76 80 79 77 77 78 77
58 58 58 58 58 58 57 57 57 57 58 57 57 60 60 72 87 86 83 84 84 85 81 84 83 78 77 73 76 75 70 73 73 77 75 79 72 69 72 76 77 77 78 78 80
58 58 57 57 57 57 57 57 57 57 57 57 57 58 65 83 88 82 86 82 84 85 84 84 83 78 75 77 74 71 72 67 72 76 73 75 66 70 70 74 76 76 76 76 77
58 58 57 56 56 56 56 56 56 57 57 57 58 58 69 79 79 88 87 82 80 80 81 81 80 74 73 69 67 68 64 65 66 73 73 74 67 68 71 75 74 75 76 77 75
58 57 57 56 56 55 56 56 56 56 58 62 64 59 74 76 83 85 85 83 80 76 73 73 75 71 72 70 59 63 64 68 66 68 74 71 67 69 70 73 73 75 76 76 76
58 57 57 56 56 55 57 62 60 58 59 69 71 70 75 83 84 83 87 81 81 75 70 71 68 65 70 72 70 70 67 66 67 66 68 66 67 67 69 71 71 73 73 74 75
57 57 56 56 56 55 60 63 70 71 66 71 70 70 76 78 74 81 87 77 75 70 73 67 64 69 70 70 69 69 66 64 63 65 67 67 65 66 67 68 71 72 73 74 73
57 56 56 55 55 55 60 66 76 76 65 69 71 73 76 78 75 78 83 78 72 68 68 67 67 68 69 68 66 65 64 62 63 64 67 67 63 64 64 66 67 69 73 73 73
56 55 55 54 55 64 63 73 75 72 62 65 69 75 76 78 72 80 82 79 70 67 67 66 68 67 68 65 66 61 66 66 62 63 59 66 58 63 64 64 66 66 69 70 71
55 55 54 56 65 65 72 76 74 71 44 67 71 83 78 73 76 74 79 78 69 67 67 62 65 66 65 63 66 62 66 67 65 66 62 62 60 62 63 62 64 66 68 69 71
55 55 54 55 62 69 73 74 72 56 44 62 71 70 70 71 71 75 74 78 75 68 69 66 71 69 67 66 68 67 66 64 64 64 52 61 59 63 62 65 66 67 67 68 70
55 55 55 66 67 71 71 70 56 48 62 60 64 69 69 66 66 69 68 67 66 59 60 65 65 69 69 65 67 67 64 53 49 49 48 57 56 63 68 67 70 67 68 69 70
54 54 55 66 73 68 69 64 48 58 60 66 66 67 64 66 64 65 65 63 65 66 63 59 53 64 67 66 64 64 64 53 41 44 52 56 53 65 67 70 73 72 71 70 69
54 54 55 65 64 65 66 50 55 60 66 64 65 62 61 64 65 64 63 64 64 65 61 58 56 66 65 67 67 60 57 62 51 47 48 57 61 67 65 66 69 70 70 69 70
58 55 64 70 68 65 59 53 61 65 66 67 59 64 58 62 62 63 62 63 62 64 66 62 54 62 63 67 66 64 65 54 56 41 40 54 55 60 60 62 66 68 67 69 71
63 60 67 69 70 63 55 60 63 68 67 64 64 60 63 60 63 62 62 62 64 64 67 66 61 57 61 61 61 59 59 57 58 52 46 44 57 64 63 66 65 67 69 70 70
63 57 65 68 60 63 60 64 58 66 67 66 67 66 64 63 61 61 60 62 64 66 62 63 61 52 58 62 64 64 61 61 51 47 48 46 54 65 64 66 69 69 70 71 70
61 62 66 64 54 52 60 64 65 65 66 66 65 66 65 62 57 60 60 60 61 63 62 62 57 49 52 58 62 60 61 60 56 52 46 43 54 64 65 65 67 68 71 69 67
64 54 60 63 66 62 60 61 62 65 66 66 63 65 62 59 60 57 58 58 60 61 49 58 58 55 50 55 60 55 57 60 60 49 51 51 59 62 64 65 67 67 69 67 64
63 61 66 51 56 62 65 64 62 60 66 67 63 65 63 55 57 56 59 57 59 51 58 61 54 55 55 54 55 56 58 58 57 58 50 58 58 65 67 68 69 67 66 64 62
62 60 62 62 61 61 57 61 62 62 64 63 63 63 64 58 62 57 60 60 60 58 59 57 52 50 48 51 52 51 57 59 59 60 58 60 58 70 70 68 66 63 62 61 61
66 65 68 49 59 59 59 62 64 65 59 63 67 63 60 60 62 64 63 63 63 59 55 53 48 48 46 47 48 40 51 58 59 60 59 53 62 67 62 62 64 64 62 61 61

GFSSW_sfc_temp_024.txt.gz
Temp
62 62 62 62 62 61 61 60 60 60 60 61 61 60 60 59 58 66 65 76 78 70 69 82 82 82 85 81 85 86 69 65 70 72 61 60 59 73 82 72 70 68 77 75 76
62 62 62 62 61 61 60 60 59 60 60 60 60 60 59 59 61 67 77 71 71 68 79 80 79 81 77 79 81 76 68 69 78 74 59 62 65 71 77 76 73 74 79 79 76
62 62 62 61 61 60 60 59 59 59 60 60 60 59 59 59 65 80 70 70 69 71 83 88 86 82 75 80 79 77 69 78 77 67 67 68 71 81 69 64 69 55 75 77 75
61 61 61 61 60 60 59 58 58 59 60 60 59 60 59 63 62 85 72 69 69 81 82 82 83 76 73 73 81 72 78 80 79 70 66 60 75 70 68 63 69 70 80 78 75
60 60 60 60 60 60 58 58 58 59 60 59 60 59 61 67 73 82 69 70 80 80 80 82 78 77 72 77 79 75 78 81 81 80 69 75 71 69 66 68 72 69 79 79 78
60 59 59 59 60 59 58 58 58 58 59 59 59 58 61 64 93 90 84 80 85 83 83 85 81 84 78 77 76 79 78 79 80 77 80 75 71 68 67 75 71 74 78 79 80
60 59 59 59 59 59 58 58 58 58 58 59 59 62 65 71 92 93 89 87 89 86 83 88 87 81 81 75 82 78 72 75 77 78 77 75 68 68 78 80 78 78 79 79 81
60 59 58 58 58 58 58 58 57 58 58 58 58 64 64 89 93 91 91 89 91 90 87 89 88 81 77 80 76 71 71 62 74 76 76 74 60 74 80 78 76 78 78 79 80
60 59 58 57 58 57 57 57 58 58 58 58 59 65 69 81 84 91 92 86 88 87 87 89 83 76 76 67 65 67 57 62 68 78 75 71 62 75 81 77 77 77 78 79 79
59 59 58 57 57 56 56 57 58 57 60 69 71 64 74 78 88 91 94 90 83 81 78 77 74 69 70 66 52 56 60 64 65 73 74 70 68 75 79 79 77 78 78 78 77
59 58 58 57 57 56 56 62 61 60 65 69 74 73 81 88 91 87 91 85 83 77 68 74 65 62 63 67 70 67 65 65 71 76 72 71 70 73 77 78 76 76 76 76 77
58 58 58 57 57 56 60 65 75 75 65 74 77 78 83 86 77 84 91 77 74 65 67 68 60 69 72 71 70 69 65 65 71 74 72 71 70 74 76 76 78 78 77 77 77
58 58 58 57 56 56 63 69 83 79 65 74 79 78 80 84 77 80 85 81 71 67 66 61 61 67 71 70 67 67 65 63 65 71 73 65 66 70 76 78 80 80 81 81 79
57 57 56 55 53 67 66 76 76 76 58 67 72 78 82 82 74 88 89 76 70 66 60 60 70 66 69 66 70 61 69 68 65 64 56 67 50 53 62 72 76 77 78 79 80
56 56 54 55 63 69 77 83 80 72 42 72 74 89 84 76 78 79 89 80 69 68 66 58 66 67 65 64 70 60 69 67 68 65 58 57 52 58 62 62 70 74 76 78 79
56 56 54 56 60 68 76 77 73 52 42 65 75 72 72 75 76 81 79 84 78 68 71 69 75 70 66 72 72 72 67 68 68 64 43 56 51 56 60 61 53 73 75 76 77
56 55 56 68 66 76 73 69 52 45 69 64 67 72 70 69 71 74 71 69 65 59 58 65 67 75 73 69 73 71 64 51 42 41 44 65 60 55 66 60 56 59 74 75 75
55 54 56 66 72 72 69 57 45 59 62 74 71 71 65 70 69 71 69 64 71 69 63 57 50 69 74 70 56 58 64 51 33 32 49 63 55 63 72 76 72 76 75 74 73
54 57 58 62 65 68 59 46 52 62 70 69 70 64 64 70 69 68 67 66 70 72 54 50 53 67 73 75 72 65 59 68 53 54 48 56 64 72 74 73 76 74 73 72 72
59 56 58 66 67 62 53 50 60 71 74 72 62 66 60 65 63 65 65 71 70 73 67 49 40 60 70 73 72 67 71 55 57 41 40 53 57 59 65 68 71 72 71 71 72
61 55 68 69 65 57 49 55 63 74 76 69 67 65 67 65 66 64 65 72 73 72 74 69 59 62 67 64 63 63 60 63 62 56 43 41 52 68 68 71 70 72 72 72 71
59 51 68 68 54 58 54 62 64 70 76 71 72 71 67 68 65 65 64 70 77 75 66 71 64 53 61 71 73 69 63 64 48 48 51 45 50 72 71 73 73 73 75 74 73
56 59 66 66 49 50 60 63 68 68 71 69 68 71 73 68 62 67 69 69 71 71 66 69 60 48 55 64 69 63 66 66 64 55 47 41 50 73 72 71 73 72 74 75 74
60 49 52 57 65 58 57 60 61 71 72 73 71 73 70 67 70 65 66 65 68 70 54 64 63 57 47 56 63 59 63 66 63 46 47 49 58 67 69 69 72 72 73 74 73
60 56 59 47 53 60 63 63 61 63 71 74 69 69 67 61 65 63 68 63 65 56 64 65 55 60 63 65 64 62 62 64 61 61 51 56 60 67 71 71 73 74 74 73 73
56 60 63 60 59 58 57 60 63 67 68 66 66 70 70 64 66 62 67 64 62 63 64 66 54 56 52 61 62 58 62 63 63 64 63 64 62 73 75 74 71 72 73 71 72
62 68 64 56 58 57 58 63 65 69 71 74 71 69 66 69 72 71 71 72 71 63 61 60 52 48 45 55 52 42 53 59 62 66 64 55 64 72 70 71 70 70 71 70 70

GFSSW_sfc_temp_030.txt.gz
Temp
62 61 61 61 60 60 60 60 60 59 59 59 60 60 60 59 58 57 52 63 62 66 68 68 68 65 64 60 65 64 52 47 52 57 54 60 59 65 64 64 60 63 61 62 64
62 62 62 61 60 60 59 60 59 59 59 59 59 59 59 58 53 52 64 66 65 67 67 65 65 64 58 58 61 58 49 53 62 61 55 60 58 62 64 58 58 58 61 63 64
62 62 61 61 60 60 59 59 59 59 59 59 59 59 58 57 52 66 68 66 67 68 69 70 69 66 57 58 60 57 55 60 65 61 61 57 59 64 61 54 58 56 58 60 61
61 61 61 61 60 60 59 58 59 59 58 59 59 59 58 53 55 69 68 67 68 70 69 67 65 58 57 55 63 58 64 67 64 62 61 61 63 63 58 60 62 62 61 61 60
60 60 60 60 60 59 58 58 58 58 58 58 59 59 53 53 59 70 68 68 70 71 68 66 63 64 59 61 62 61 66 69 65 64 65 66 61 60 56 60 64 64 63 61 60
60 59 59 59 59 58 58 57 57 57 57 58 59 58 51 53 74 72 70 70 71 68 68 67 67 69 64 64 60 66 66 66 64 63 64 64 62 60 58 62 62 65 62 61 62
60 59 59 59 59 58 58 57 56 56 57 58 58 57 52 58 72 69 74 71 71 72 69 72 73 66 64 63 70 66 59 64 61 62 61 65 57 57 63 66 63 65 63 61 64
60 59 58 58 58 57 56 56 56 56 57 58 58 52 50 72 68 71 73 74 76 74 72 75 74 70 63 66 65 60 57 51 61 63 64 62 51 61 63 64 61 61 64 62 64
59 59 58 58 57 56 56 56 56 57 57 57 51 50 53 73 72 76 75 74 75 73 73 81 70 62 63 55 51 52 46 50 56 66 65 59 52 61 62 64 61 60 64 66 63
59 59 58 58 57 56 55 56 56 55 56 59 59 50 61 67 75 78 76 77 74 71 68 65 59 55 54 51 42 49 50 50 53 59 62 58 56 61 61 63 62 60 60 64 65
59 59 58 58 56 56 53 51 52 51 51 55 58 59 67 74 78 75 77 74 70 66 54 59 52 48 53 56 61 59 56 52 58 63 60 58 56 59 60 61 60 56 59 63 65
58 58 58 57 56 56 51 49 57 58 51 61 63 64 70 71 66 72 77 67 62 55 56 54 49 57 63 64 58 56 53 52 58 62 59 56 55 58 59 62 62 62 62 63 63
58 58 58 56 56 52 49 52 63 63 49 59 64 64 67 70 65 67 73 67 60 56 55 51 57 63 62 58 56 54 52 52 54 57 58 54 50 52 60 62 64 66 67 67 66
57 57 56 55 52 53 50 60 59 60 43 53 61 66 71 71 63 74 74 69 60 56 54 53 60 60 58 56 57 50 60 57 57 51 44 51 39 49 56 59 62 62 60 65 66
56 56 54 57 51 53 61 61 59 57 27 60 62 76 72 65 66 68 76 68 58 57 56 53 56 55 53 57 60 54 60 57 56 50 46 48 43 48 52 56 59 61 62 62 65
56 55 54 53 51 52 58 59 58 43 32 56 65 62 62 64 64 66 69 70 67 58 57 57 61 61 59 63 62 63 58 54 51 47 37 47 44 44 49 57 59 62 63 64 61
56 55 55 58 53 56 60 55 39 36 56 56 57 62 60 58 60 62 60 56 53 47 46 55 57 62 64 57 60 57 49 37 35 32 33 50 45 47 56 59 60 62 60 60 63
55 54 55 58 56 56 56 49 36 47 50 61 60 60 55 59 59 59 56 52 56 55 47 45 42 56 61 58 52 53 50 36 32 29 37 50 42 50 60 64 64 62 60 59 58
54 53 52 55 55 58 52 40 39 48 58 57 58 53 52 58 58 56 53 53 57 57 48 44 46 57 59 62 59 53 46 53 40 38 34 41 49 57 58 57 57 56 59 56 55
51 51 52 56 57 55 46 43 48 58 61 60 51 54 49 54 53 52 52 58 58 60 58 52 44 54 58 62 60 57 60 45 41 33 32 39 41 44 53 56 57 54 56 56 56
50 47 56 59 54 48 40 43 52 61 60 57 54 53 54 52 54 51 54 59 61 57 59 52 50 48 55 52 52 52 50 50 47 38 33 29 38 52 55 58 56 55 56 57 58
48 42 55 59 44 43 43 50 52 56 60 58 58 56 54 55 52 53 53 58 61 60 55 55 48 36 50 59 58 55 52 50 34 38 32 30 38 56 57 58 57 57 59 59 61
45 47 55 57 38 38 46 51 53 54 56 56 56 59 59 54 49 53 53 58 59 60 55 54 45 34 42 51 55 52 55 53 47 38 36 29 37 58 57 58 59 57 58 61 60
46 40 47 49 52 46 43 45 46 57 55 57 57 58 55 52 55 51 53 57 57 57 52 56 49 43 36 44 49 46 51 52 48 33 35 35 45 53 55 56 58 58 58 58 60
46 46 47 40 42 47 48 48 45 47 56 58 55 55 53 48 49 52 53 54 56 53 55 54 45 47 49 51 51 50 51 52 49 47 39 45 46 54 54 53 56 58 58 57 57
43 47 48 44 48 45 46 46 47 51 54 54 53 56 55 52 53 50 54 51 52 53 52 53 43 41 40 49 49 46 50 50 51 50 49 49 47 53 54 54 55 56 58 57 57
47 52 50 45 46 43 44 48 50 54 56 59 58 56 51 57 59 58 58 57 57 52 48 46 39 35 35 42 42 34 43 49 51 51 51 41 48 52 52 54 53 53 56 55 56

GFSSW_sfc_temp_033.txt.gz
Temp
62 62 61 61 60 60 59 59 59 59 59 59 59 59 59 59 57 54 51 63 59 64 67 65 66 62 62 58 59 59 49 46 50 51 55 59 59 59 61 59 60 61 61 62 63
62 62 62 61 60 59 59 59 58 59 59 59 59 59 59 58 52 51 63 65 64 66 65 63 62 61 56 54 56 54 47 53 59 58 55 59 55 60 58 56 57 57 61 63 63
62 62 61 61 60 59 59 58 58 59 58 59 59 59 58 56 53 65 67 65 66 66 66 66 66 63 54 55 55 54 53 57 62 61 59 58 56 63 57 53 56 56 58 61 61
61 61 61 61 60 59 59 57 58 58 58 58 59 59 58 51 53 65 68 66 67 65 66 65 62 56 53 55 58 52 61 62 62 61 60 59 61 60 56 58 61 59 61 60 60
60 60 60 60 60 59 58 57 57 57 57 58 59 59 52 52 59 69 67 67 66 67 64 64 60 59 54 58 57 57 62 64 65 62 61 63 59 57 54 59 61 61 61 61 61
59 59 59 59 59 59 58 57 57 57 57 57 58 58 50 52 71 70 68 66 67 65 65 65 64 65 60 59 56 63 61 61 60 62 63 60 58 60 56 59 59 60 60 63 62
59 59 59 59 59 58 58 57 56 56 57 57 58 56 50 57 68 67 70 66 68 67 65 68 68 64 62 60 64 64 56 60 59 58 59 63 56 55 59 60 58 59 60 61 63
60 59 58 58 58 57 57 56 56 56 57 57 57 50 50 68 65 68 68 69 72 70 70 72 69 65 62 64 62 58 55 49 57 58 61 61 49 56 59 59 57 58 59 60 61
59 59 58 57 57 56 56 56 56 57 57 57 49 49 52 70 66 73 71 69 72 70 70 76 67 59 61 53 49 51 45 49 54 61 58 57 53 58 59 60 57 58 57 59 60
58 58 58 57 57 56 55 55 56 55 55 58 57 49 59 64 71 73 70 72 70 67 65 63 56 52 51 50 41 44 46 44 49 56 57 54 52 58 59 59 59 57 59 58 61
58 58 58 57 57 55 53 51 52 51 51 54 56 56 62 69 72 70 72 70 66 63 53 56 50 45 49 53 55 53 50 47 53 61 58 55 55 57 57 57 55 55 57 59 61
58 57 58 57 56 56 52 49 56 55 48 58 59 60 66 68 62 67 74 64 60 54 54 52 46 55 58 59 57 55 51 53 55 59 57 54 55 55 56 59 60 58 58 60 61
57 57 57 57 56 52 49 54 63 58 47 56 60 59 63 66 60 62 70 64 57 54 53 48 54 60 59 56 54 51 49 50 52 55 53 52 49 53 57 59 60 61 63 63 62
56 56 55 55 52 53 51 59 59 57 42 50 56 61 66 67 61 70 71 66 56 55 52 51 57 57 54 53 54 47 55 54 53 49 43 50 38 47 53 57 59 61 58 62 63
56 56 54 56 53 52 59 60 59 55 28 56 58 71 67 63 63 64 71 65 56 55 54 51 53 52 51 55 57 52 55 54 53 48 44 45 41 45 50 51 56 59 60 62 64
55 56 54 54 51 53 57 58 56 38 30 52 61 58 58 61 61 64 65 66 63 56 53 55 59 57 56 59 58 58 54 51 47 45 35 44 41 42 48 54 58 61 63 62 58
55 56 54 57 50 55 57 55 40 29 54 52 54 57 56 54 56 58 57 54 51 45 45 51 54 57 60 53 57 55 47 36 35 31 32 46 42 46 54 57 58 57 60 60 63
55 54 54 58 54 54 57 49 34 44 46 57 57 55 52 55 55 56 53 50 53 51 44 43 41 53 57 54 50 48 48 36 32 29 36 46 39 48 57 59 59 59 59 57 56
54 52 53 55 57 52 51 39 37 45 55 54 55 50 49 54 55 53 50 50 54 55 47 42 45 53 56 58 58 51 44 50 37 34 33 38 46 55 57 56 54 53 56 54 54
46 49 51 58 58 51 46 43 46 54 57 54 48 51 45 49 50 50 49 55 55 57 56 50 43 52 55 57 58 54 56 42 39 33 31 36 39 43 52 56 54 52 54 53 53
47 44 55 57 56 45 39 42 49 59 57 52 50 49 51 49 51 47 51 55 57 54 57 50 48 46 51 50 50 50 47 46 45 36 31 28 37 49 53 55 56 56 54 54 53
45 38 52 57 43 42 39 46 51 55 56 54 54 52 51 51 49 50 50 56 59 56 52 52 45 35 48 54 56 52 48 47 34 37 31 29 36 53 54 55 55 57 57 54 54
41 45 53 54 39 38 44 48 52 53 52 52 52 54 54 50 47 50 51 56 56 56 52 52 43 33 42 49 52 48 50 49 44 36 34 28 36 55 53 55 57 56 57 56 55
42 38 45 47 50 45 42 43 45 54 52 53 52 54 51 50 52 49 50 54 55 56 52 54 46 42 36 43 47 43 48 48 46 32 34 34 43 51 55 53 56 56 55 53 55
42 41 48 39 41 45 46 46 44 46 52 53 49 51 48 44 46 46 50 52 54 52 52 53 44 44 46 48 49 49 49 48 46 44 38 44 43 50 51 54 53 54 54 54 54
39 41 47 43 47 44 45 43 44 48 48 48 49 53 53 46 49 48 51 49 50 51 49 50 41 41 39 46 46 44 48 48 47 47 46 46 45 49 50 49 51 52 54 53 54
44 47 44 45 45 42 43 44 46 50 51 55 55 53 48 52 55 55 55 56 56 52 46 45 38 36 35 39 39 34 41 46 48 49 49 41 48 48 48 50 48 49 52 52 53

GFSSW_sfc_temp_036.txt.gz
Temp
62 62 62 61 60 60 59 59 59 59 59 59 59 59 59 59 57 53 51 63 59 64 64 62 62 60 60 55 56 54 45 42 47 49 55 56 56 58 59 56 60 61 61 62 64
62 62 62 61 60 60 59 59 58 58 59 59 58 59 59 58 51 49 63 65 64 66 64 62 59 59 54 52 54 51 45 49 56 56 54 55 55 60 56 56 57 58 61 63 63
62 62 62 61 60 60 59 58 58 58 58 59 58 59 58 55 52 63 66 65 65 65 63 64 64 61 53 52 53 50 50 56 60 60 58 54 55 61 55 51 57 56 59 60 61
61 61 61 61 61 60 59 58 58 58 58 58 58 59 58 50 51 62 67 66 66 64 63 61 60 54 52 50 54 49 58 59 61 60 57 57 60 57 53 55 61 61 61 61 60
60 60 60 61 60 59 58 58 57 57 57 58 58 59 53 52 58 65 66 66 64 65 63 62 58 57 52 54 54 53 59 61 61 60 59 61 57 56 52 57 61 60 61 60 61
59 59 60 60 60 59 58 57 57 57 57 57 58 58 49 50 68 67 64 65 64 61 62 62 62 63 57 55 56 60 59 58 59 59 61 57 56 56 55 57 57 58 57 58 60
59 59 59 59 59 59 58 57 56 56 57 57 58 55 49 56 66 63 68 64 66 64 62 65 65 60 59 56 62 60 54 58 57 59 59 60 52 52 56 58 55 56 57 60 60
59 59 58 58 58 58 57 56 56 57 57 57 57 49 49 66 62 65 64 66 68 67 66 69 66 62 57 61 59 55 54 50 56 57 57 56 44 53 56 56 54 55 57 59 60
58 58 57 57 57 57 56 56 56 57 57 57 50 47 52 68 64 70 69 68 69 67 67 74 64 57 57 50 49 49 43 48 52 58 57 53 46 54 56 56 54 55 56 57 57
57 57 57 57 57 56 55 56 56 55 55 57 56 48 58 61 68 70 66 69 66 64 62 60 54 50 49 49 41 42 43 41 44 53 54 52 48 52 55 56 55 55 55 56 56
57 57 57 57 57 56 53 52 52 50 51 55 54 54 59 66 68 66 68 67 64 61 51 54 49 44 48 51 54 51 47 46 48 56 55 54 51 53 54 55 54 53 54 55 57
57 57 57 57 57 56 52 49 56 54 47 56 57 57 62 64 59 64 70 62 58 52 52 51 45 53 56 54 54 51 48 48 53 55 53 50 50 55 54 55 56 56 56 57 59
56 56 56 56 55 53 49 53 61 59 46 55 57 56 60 63 58 60 67 61 55 51 51 47 51 57 57 53 52 49 47 48 48 52 50 50 46 48 54 56 57 58 59 60 59
56 55 55 55 52 50 50 58 60 57 41 49 53 58 61 62 58 67 68 63 54 53 51 49 55 54 51 51 53 44 54 51 50 46 42 47 38 45 49 55 56 59 56 59 60
55 55 55 55 53 49 57 59 58 55 30 54 54 68 62 61 61 62 68 63 55 53 52 50 50 51 49 52 55 51 53 51 50 45 43 43 41 44 48 49 55 58 59 59 61
56 55 55 53 52 52 57 58 56 41 30 50 58 55 55 58 58 59 62 64 60 54 50 52 55 54 54 57 56 56 51 49 46 43 35 42 40 41 44 52 58 60 61 62 61
55 55 54 57 52 53 57 53 41 31 52 50 51 54 53 52 54 56 54 52 49 44 43 49 51 54 57 51 53 50 45 35 34 31 32 44 40 44 53 52 55 56 60 62 62
55 54 54 57 57 52 55 47 33 43 45 54 53 52 50 53 53 53 51 48 49 49 43 42 40 52 56 54 50 47 46 34 31 28 35 44 38 48 53 56 55 56 56 56 55
54 47 50 55 57 55 49 37 37 43 51 50 51 47 47 51 51 50 49 48 52 52 46 40 43 51 53 55 54 48 42 48 36 33 32 37 45 53 52 52 53 54 52 52 54
47 46 46 57 57 53 42 41 47 51 55 51 45 49 43 47 48 48 46 52 52 55 54 49 42 49 52 54 54 51 53 40 37 32 30 34 36 41 50 51 50 51 53 53 51
46 41 48 55 54 45 35 40 49 56 55 49 46 46 48 46 48 44 47 52 55 53 54 49 47 45 49 48 48 47 44 43 43 35 31 27 36 48 51 53 53 52 53 53 53
44 34 51 55 42 45 41 44 50 53 55 52 50 49 48 48 46 47 48 53 56 54 50 51 45 35 46 51 53 50 47 44 33 36 30 29 35 51 52 52 52 55 54 52 53
40 41 52 53 37 39 46 46 48 51 51 50 48 51 51 47 44 48 49 55 54 54 50 50 41 33 40 46 49 46 48 46 42 35 33 27 36 53 52 53 54 54 55 54 52
41 34 43 45 50 43 42 42 43 52 51 52 49 51 49 47 48 47 49 53 53 54 52 53 43 41 37 42 46 42 46 45 43 32 34 33 41 49 52 51 54 55 52 53 53
41 37 45 36 39 43 45 44 41 44 52 51 46 48 47 43 44 44 47 49 51 50 50 51 42 43 44 47 47 46 47 45 43 42 38 42 41 48 50 51 51 52 51 51 50
37 38 43 40 44 42 43 42 42 45 47 46 45 48 48 44 47 45 48 47 48 49 48 47 41 40 38 43 43 41 45 44 44 43 43 43 43 50 48 46 48 49 50 50 51
42 43 43 43 42 39 40 43 44 48 51 52 51 50 45 52 56 54 54 52 49 47 44 43 38 36 35 38 40 34 40 45 44 45 46 40 46 48 45 47 46 47 49 48 47

GFSSW_sfc_temp_039.txt.gz
Temp
62 62 62 61 61 60 60 59 59 59 59 59 59 59 59 59 58 56 60 69 65 65 65 70 71 69 70 67 68 65 60 55 56 57 62 62 61 62 64 62 63 64 64 64 62
62 62 62 62 60 60 59 59 58 58 59 59 59 59 59 58 53 56 68 66 65 66 70 69 66 68 66 66 66 65 57 58 64 65 63 62 63 63 61 60 60 61 62 62 63
62 62 62 62 61 60 59 59 58 59 59 58 59 59 58 57 57 70 66 66 65 67 72 72 70 69 64 65 64 61 59 62 66 67 65 61 61 65 61 59 62 59 60 62 61
60 60 61 61 61 60 59 58 58 59 58 58 59 59 58 55 58 71 66 66 66 68 71 70 68 65 62 61 65 60 64 65 67 64 62 61 63 60 61 60 64 64 62 61 60
59 59 60 61 61 60 59 58 58 58 58 58 59 59 57 58 62 68 66 66 67 69 70 68 66 65 61 63 63 60 65 66 65 64 64 65 60 59 58 61 64 64 63 61 62
58 59 59 60 60 60 59 58 57 57 57 58 58 58 56 55 71 69 67 67 69 70 69 69 69 69 64 63 62 65 64 63 62 64 64 61 60 62 58 61 60 61 62 64 62
58 58 58 59 59 59 59 58 57 57 57 58 58 56 53 60 69 69 69 70 69 71 69 71 72 69 67 63 67 66 62 64 62 64 63 65 60 58 60 61 59 59 61 62 62
58 58 57 58 58 58 58 57 56 57 57 57 57 54 53 68 68 67 69 70 71 71 72 73 73 69 66 68 65 61 61 56 62 63 62 65 55 58 60 60 59 60 61 62 61
57 57 57 57 57 57 57 56 56 57 57 57 53 53 56 69 66 72 72 71 70 70 71 74 72 64 65 60 58 56 53 54 58 65 61 61 56 60 61 60 60 61 62 62 61
57 57 57 56 56 56 55 56 56 56 56 57 57 53 62 65 70 72 71 72 72 69 68 67 62 60 59 59 50 52 53 55 55 61 61 58 59 58 59 60 61 62 62 62 63
57 57 57 56 56 55 55 55 54 51 53 57 58 57 62 68 70 70 71 70 70 67 59 61 59 54 57 58 59 57 56 54 57 62 60 59 59 58 58 58 59 61 62 62 63
57 57 56 56 56 55 55 52 56 57 49 58 58 58 63 67 61 66 72 66 64 58 59 58 53 59 59 59 58 57 55 54 58 60 59 58 57 59 58 59 62 62 62 63 65
57 57 56 55 55 54 53 54 61 60 48 55 58 57 60 65 60 62 69 65 61 56 56 54 58 61 59 57 56 56 55 53 54 57 58 56 56 56 59 60 62 64 65 65 65
56 56 55 55 52 54 52 60 60 58 44 50 54 58 61 63 59 69 70 67 61 57 55 57 60 59 58 57 58 53 59 57 54 53 50 55 49 53 57 59 60 63 64 65 66
56 56 55 55 51 50 57 59 58 55 31 55 54 68 62 62 64 63 69 67 58 57 58 56 57 56 54 57 59 57 58 57 56 53 51 51 52 55 54 56 60 63 64 65 67
55 55 55 53 52 55 58 59 56 42 30 51 57 55 55 60 62 63 65 67 64 57 57 58 61 60 60 61 60 60 57 54 52 51 45 49 51 53 55 59 63 65 66 67 68
55 55 54 57 52 55 59 55 40 33 52 50 51 55 54 54 56 59 57 56 55 48 49 55 57 61 62 59 60 58 53 46 43 42 42 49 48 55 61 60 63 64 67 69 71
55 54 54 56 58 56 55 45 33 43 46 56 55 53 51 55 55 56 53 53 56 55 49 48 46 57 61 60 57 54 54 45 36 37 44 48 46 58 63 65 63 62 63 65 67
54 50 48 52 56 54 48 36 40 44 51 51 54 49 49 53 54 54 52 54 56 56 51 45 48 58 59 61 61 54 51 54 42 39 41 46 52 61 62 63 63 62 62 63 64
47 46 47 53 56 50 42 41 44 52 55 54 47 51 45 49 50 51 49 55 55 57 60 54 47 55 58 60 59 58 58 48 46 37 35 43 45 51 58 60 61 62 64 64 64
46 40 50 54 53 45 37 42 48 55 57 51 48 48 49 48 51 48 50 56 58 55 59 54 53 50 55 54 54 53 51 49 50 45 40 37 46 57 60 62 62 62 62 63 64
43 33 48 54 39 43 39 46 49 52 56 53 53 51 50 50 48 49 50 57 58 58 54 56 50 44 52 57 59 57 54 52 44 42 40 39 45 60 60 61 60 62 62 64 64
38 40 48 51 34 38 45 47 48 50 51 51 50 52 54 51 47 50 50 57 55 57 54 54 48 42 47 52 55 54 53 51 47 44 40 39 46 59 59 62 62 61 64 63 63
40 33 40 43 48 44 41 42 43 50 50 54 51 53 52 50 51 48 50 55 54 57 51 57 48 47 44 49 52 48 50 50 51 42 43 44 51 58 62 60 63 63 62 62 63
40 37 42 33 37 42 45 44 42 42 51 53 48 50 49 45 48 47 51 52 54 51 54 56 47 47 50 52 52 52 51 49 49 50 46 51 48 57 60 61 61 59 59 60 59
37 37 42 42 42 40 43 41 42 45 48 47 47 50 51 47 50 47 51 51 52 51 51 51 47 47 45 48 50 48 51 50 50 49 50 50 50 59 59 59 57 55 56 55 54
43 42 43 42 40 38 40 43 44 47 49 52 50 48 46 51 55 55 56 56 55 52 48 48 43 42 41 44 46 39 46 50 50 51 52 47 56 57 55 55 54 53 54 51 50

GFSSW_sfc_temp_042.txt.gz
Temp
62 62 62 62 61 61 61 60 59 59 59 60 59 59 60 59 59 66 73 76 75 66 64 80 81 81 82 78 80 79 69 67 66 66 69 72 70 71 73 73 72 71 72 71 64
61 62 63 62 61 61 60 60 59 59 59 59 59 59 59 58 65 70 72 66 66 66 80 79 76 80 78 76 78 74 70 67 74 75 72 73 72 71 69 69 71 66 62 64 65
61 61 61 61 61 61 60 59 59 59 59 59 59 59 59 61 67 79 66 66 66 69 81 82 81 79 73 76 75 74 69 74 75 76 75 71 71 73 70 69 72 66 59 61 63
60 60 60 61 61 61 60 59 59 59 59 59 59 59 59 66 66 82 67 66 66 80 81 79 78 74 72 70 75 68 75 75 75 73 72 68 69 67 70 67 71 69 63 61 60
58 59 59 60 61 60 59 59 59 59 59 59 59 59 66 69 74 80 67 68 78 79 79 78 75 74 71 73 73 69 73 75 73 72 72 71 70 65 63 67 70 67 63 60 60
58 58 58 59 59 59 59 59 58 58 58 58 59 58 66 63 80 79 79 78 81 80 79 79 77 77 73 72 71 74 73 73 71 70 72 70 69 70 66 71 70 68 64 61 59
58 58 58 58 58 59 59 58 57 57 58 58 58 63 62 68 81 82 80 81 82 82 78 81 81 77 76 72 75 75 69 72 71 71 71 72 67 66 70 70 67 68 68 62 61
59 58 57 57 57 57 57 57 57 57 57 58 58 62 63 77 82 77 82 80 81 82 80 82 81 77 74 76 74 70 70 63 72 71 71 71 63 67 71 70 68 69 70 67 61
58 58 57 56 56 56 56 56 57 57 57 57 59 60 64 71 72 82 83 78 80 80 80 80 79 75 74 70 67 68 63 63 66 73 71 70 65 70 71 70 70 70 70 70 65
58 58 57 56 56 56 55 55 59 57 60 63 64 57 69 71 77 79 83 81 78 77 74 74 75 70 71 68 57 61 62 65 64 70 70 68 67 72 71 71 70 72 72 70 69
58 58 57 56 56 55 60 69 65 60 58 63 65 65 70 76 77 78 80 77 78 75 68 71 67 63 68 69 69 66 65 63 68 72 67 68 69 72 72 70 70 71 72 71 73
57 57 57 56 56 56 62 61 63 62 56 67 66 67 71 74 68 75 81 73 70 66 70 66 63 68 68 68 66 65 63 63 66 68 67 70 67 72 73 70 72 73 73 73 74
57 57 57 56 55 57 62 63 69 68 56 62 67 66 68 69 67 73 77 76 70 66 66 64 67 68 66 65 63 64 63 62 62 66 68 65 64 66 71 72 73 74 77 77 76
56 56 55 55 54 64 61 67 69 67 52 58 60 66 67 70 64 79 80 76 69 65 67 66 70 66 66 64 66 60 68 65 63 61 58 64 55 64 70 69 70 73 74 77 77
56 56 55 54 54 60 65 68 66 63 38 62 61 74 69 67 70 71 82 75 67 65 66 63 65 64 63 65 68 63 66 64 64 63 61 61 59 65 67 68 72 73 75 77 80
55 56 55 57 55 63 68 67 64 49 38 57 63 59 59 64 69 73 71 76 76 68 68 69 71 69 68 68 69 68 64 63 63 63 52 59 59 63 67 70 73 77 78 78 79
54 55 55 63 55 67 65 62 48 41 59 57 57 60 60 60 64 67 65 63 62 55 57 64 65 70 69 64 67 66 62 51 49 49 48 59 57 63 71 72 73 74 77 79 80
54 54 55 60 64 63 59 47 39 53 54 61 59 60 56 62 64 65 64 61 67 66 61 56 52 65 70 66 64 64 63 52 40 44 52 56 53 65 72 74 75 75 76 77 79
54 50 50 55 61 57 49 39 46 53 58 57 59 54 55 59 63 62 62 63 66 67 58 56 57 67 68 70 70 61 57 64 53 50 50 58 61 70 71 71 73 74 74 76 77
50 46 48 55 60 48 43 43 52 62 61 60 52 57 51 55 56 59 60 66 65 69 73 63 54 63 64 68 66 65 68 54 57 42 41 53 55 62 65 69 72 74 76 77 77
48 40 54 56 54 42 37 47 54 63 63 57 56 55 56 55 56 58 60 63 69 67 72 68 62 57 62 61 62 61 59 60 60 56 46 44 53 70 69 71 72 73 75 77 78
45 35 54 58 37 39 40 51 55 59 63 59 59 57 56 57 54 56 59 64 71 71 61 68 62 53 59 65 67 68 64 63 52 50 52 49 53 73 73 73 73 74 74 76 77
39 40 52 54 32 34 46 50 56 56 58 57 56 59 60 56 52 59 61 69 68 68 65 65 58 50 53 58 63 61 64 64 61 56 52 45 54 71 71 71 75 74 76 74 74
39 33 40 42 53 45 43 47 48 58 58 60 59 59 57 54 59 56 59 61 64 69 57 63 62 56 49 56 63 57 61 63 60 51 53 54 59 68 71 72 75 75 74 74 74
40 37 42 34 39 47 49 49 47 48 57 60 56 56 56 50 54 54 58 58 60 55 64 65 56 60 62 64 65 63 63 61 59 60 54 59 61 66 71 73 75 71 70 69 69
36 42 47 46 45 44 46 45 48 51 53 52 53 56 57 54 55 53 55 56 60 59 62 65 57 58 55 61 61 59 63 64 63 63 62 63 62 73 75 73 71 68 67 66 65
44 54 52 46 45 42 44 45 48 53 55 59 58 56 53 56 59 58 59 59 61 59 58 58 56 52 49 57 56 46 55 61 63 64 63 57 66 73 71 69 70 67 66 64 62

GFSSW_sfc_temp_045.txt.gz
Temp
61 62 62 62 62 62 61 61 60 60 60 60 60 60 60 59 59 75 77 77 79 68 66 86 86 87 87 85 86 86 72 66 69 70 71 79 74 81 82 78 78 78 75 72 68
61 62 62 62 61 61 61 60 60 60 60 60 60 59 59 59 68 77 74 68 69 67 84 83 82 84 82 82 84 78 73 71 78 79 76 78 79 78 73 79 77 70 71 70 67
61 61 61 61 61 61 61 60 60 60 60 59 59 59 59 62 71 83 67 67 67 71 88 88 87 84 79 82 80 79 71 78 79 79 79 77 76 79 76 68 55 69 61 64 65
60 60 60 60 61 60 60 59 60 60 60 60 60 60 59 70 67 86 70 67 67 83 86 84 83 78 77 75 81 73 79 80 80 80 77 74 74 73 76 70 73 72 64 62 61
59 59 59 60 60 60 59 59 59 59 59 59 60 59 66 71 78 83 68 68 80 83 83 82 80 80 75 77 78 75 77 80 80 78 78 77 76 70 69 72 71 65 62 61 60
59 59 58 59 59 59 59 58 58 58 58 59 59 58 68 64 89 88 86 82 87 85 84 85 82 83 78 78 76 78 78 77 78 77 78 74 75 75 72 77 70 68 63 60 60
58 59 58 58 58 58 58 58 58 58 58 59 59 67 65 70 89 90 87 86 89 88 84 87 86 81 81 76 81 79 73 76 74 76 75 77 56 71 75 75 72 70 66 65 64
59 58 58 57 57 57 57 57 57 58 58 58 58 69 65 86 90 86 88 86 88 90 86 88 87 81 79 82 78 74 75 61 75 77 78 66 43 73 77 74 72 73 71 68 68
58 58 58 57 56 56 56 56 57 58 58 58 63 66 67 74 77 84 89 84 86 86 86 87 83 79 80 72 69 72 63 62 65 78 73 73 55 74 78 76 73 74 73 70 71
58 58 58 57 56 56 55 56 61 58 62 70 71 62 72 74 82 86 88 87 82 81 78 77 77 73 74 71 60 64 64 68 63 55 75 71 69 75 77 76 74 74 74 71 70
58 58 58 57 57 56 59 73 67 64 67 68 71 72 75 82 83 82 87 82 82 78 69 76 69 65 71 74 73 71 69 66 68 76 71 70 72 68 77 76 74 74 73 72 70
57 57 58 58 56 56 60 67 69 66 59 73 73 73 77 79 71 79 86 74 73 68 73 71 64 74 74 73 70 69 67 67 71 74 71 71 69 76 77 76 77 76 76 74 76
56 57 57 57 56 58 65 70 76 73 59 67 74 73 74 77 69 75 80 77 72 68 71 66 71 74 70 69 67 68 66 64 65 71 74 71 68 72 77 78 79 79 79 78 77
55 56 56 56 53 67 65 75 75 71 54 62 65 71 76 75 67 82 83 79 74 68 71 69 76 70 69 68 70 63 73 68 67 65 58 69 51 59 73 74 75 78 78 79 80
55 55 55 54 57 64 71 75 74 67 39 67 70 80 76 69 75 74 86 78 69 70 71 66 69 67 66 69 72 66 71 69 68 65 65 65 61 64 74 71 74 77 79 81 82
55 55 55 56 59 63 72 71 67 50 40 62 68 64 64 67 73 79 76 80 80 72 73 71 79 75 73 74 73 74 68 68 68 65 53 63 63 56 68 72 76 80 81 81 83
55 55 55 63 57 69 63 59 49 42 64 60 62 65 64 64 67 72 67 65 64 58 60 67 69 74 75 67 72 70 64 52 50 50 49 62 61 64 63 77 77 78 82 83 84
54 54 54 62 67 60 54 47 41 55 57 66 65 65 60 66 65 67 66 62 69 69 64 58 55 68 74 69 66 66 65 54 37 46 52 63 56 64 77 79 80 82 82 83 84
54 57 55 56 64 58 44 37 47 56 65 62 64 58 59 65 65 65 64 64 67 71 61 59 60 74 74 74 73 66 60 70 54 58 52 60 66 73 77 76 78 79 80 82 83
51 53 54 55 62 54 39 39 53 65 67 65 56 62 57 61 61 63 62 69 67 73 76 67 57 70 71 74 74 69 73 57 59 44 42 56 59 61 68 71 75 77 79 81 82
48 41 58 57 54 43 34 44 54 66 69 63 60 60 62 61 62 61 62 68 72 72 75 71 64 62 68 63 64 65 62 64 63 57 46 46 56 71 71 74 74 77 79 80 82
44 35 56 56 37 41 37 49 55 62 66 65 66 64 63 63 61 61 60 65 72 74 65 71 65 55 60 71 74 70 66 65 53 53 56 53 55 76 76 78 77 78 79 81 82
39 42 53 55 32 39 46 49 56 57 60 62 61 64 67 62 56 62 63 69 70 71 67 69 61 52 56 63 69 65 68 69 66 63 54 46 54 76 76 76 78 78 80 81 81
40 33 40 43 51 47 45 46 49 57 59 64 63 65 62 60 64 60 61 66 68 69 59 65 64 58 51 58 65 59 64 67 64 53 54 56 61 70 73 74 78 79 81 80 81
40 38 42 33 40 47 50 50 49 49 58 61 60 61 60 55 58 58 62 62 62 60 65 66 57 61 64 67 67 65 64 65 63 63 56 61 64 70 74 76 78 77 78 77 77
35 46 48 48 45 47 48 47 50 53 56 54 55 60 62 58 60 56 60 59 58 64 62 68 57 61 58 65 66 62 66 67 67 66 65 66 65 76 78 80 78 77 76 76 75
43 56 50 47 44 45 47 49 50 56 59 62 60 58 57 62 64 62 63 61 61 60 59 62 58 55 50 61 61 51 60 65 67 69 67 60 68 76 75 76 76 76 76 74 73

GFSSW_sfc_temp_048.txt.gz
Temp
61 61 62 61 61 61 61 61 61 60 60 61 60 60 60 60 59 77 74 78 80 68 67 86 85 85 86 82 85 85 68 63 67 66 70 79 76 81 67 75 65 65 64 65 64
61 61 61 61 61 60 61 61 60 60 60 60 60 60 60 59 65 73 76 69 68 68 81 82 80 83 79 80 82 76 68 68 77 78 74 77 77 68 55 66 59 59 66 66 68
61 60 60 61 60 60 60 60 60 60 60 60 60 60 59 61 70 78 67 68 69 71 83 86 86 83 76 81 80 77 69 76 78 78 79 76 76 79 73 61 59 59 59 64 63
60 60 60 60 60 60 59 59 59 60 60 60 60 60 59 67 64 80 68 68 68 81 83 83 82 76 74 74 81 72 78 79 79 80 78 76 78 74 71 63 66 64 64 62 60
60 59 59 60 59 59 58 58 59 59 59 60 60 60 64 70 74 79 68 69 79 80 80 80 78 77 72 77 79 74 77 79 81 79 78 80 69 63 68 67 67 64 63 61 59
59 60 59 59 59 58 58 58 58 58 59 59 60 58 66 60 90 88 86 79 84 81 82 84 81 83 76 76 75 79 77 78 79 78 78 61 56 57 68 73 67 66 63 60 59
59 59 59 59 58 58 58 57 57 57 58 59 59 64 63 65 90 91 88 84 86 86 82 86 87 79 80 74 81 79 71 75 76 77 75 69 58 54 66 74 69 65 63 61 60
59 59 59 58 57 57 57 57 57 57 58 59 59 64 59 84 90 87 89 86 90 90 87 89 88 80 76 79 76 72 72 64 74 74 69 66 50 61 69 72 70 66 65 63 63
58 58 58 59 57 57 56 56 56 58 59 60 61 63 62 77 78 84 88 81 84 86 87 88 83 75 76 69 65 69 60 64 68 74 72 61 48 56 65 74 71 69 67 65 63
57 57 58 58 57 56 56 56 60 59 62 69 70 63 70 72 83 84 87 85 81 80 77 77 74 68 69 66 54 61 63 66 63 68 70 67 57 56 61 75 71 70 67 66 65
57 57 57 57 58 56 57 65 65 60 64 65 68 67 76 83 85 81 84 80 80 76 66 72 64 60 66 70 71 70 66 64 67 72 67 69 69 59 59 68 71 70 68 67 66
57 56 57 57 57 56 59 59 70 69 58 72 72 72 77 81 71 77 85 72 70 65 70 67 61 70 74 74 70 68 65 65 71 74 71 70 69 65 59 67 73 71 69 68 68
56 56 56 57 57 56 58 63 77 75 58 65 72 71 73 76 69 73 79 74 67 65 66 62 68 76 72 69 66 66 64 65 63 70 73 69 65 67 72 76 76 76 75 72 69
56 55 55 56 52 62 61 73 76 73 50 59 68 72 76 75 66 78 82 75 70 64 67 67 74 72 69 66 69 61 72 70 66 63 56 68 51 65 70 66 74 75 74 73 74
55 55 55 54 57 58 64 67 75 66 34 68 72 82 77 68 72 72 81 76 66 67 68 64 68 68 65 67 72 65 72 68 67 63 62 61 56 63 70 66 71 74 75 75 75
55 55 54 55 57 61 66 65 66 46 36 61 69 65 65 68 69 75 72 79 76 69 70 69 78 74 71 73 74 75 69 67 66 62 49 61 60 54 60 61 71 76 77 77 77
55 55 55 60 51 66 61 54 43 39 63 59 62 65 63 62 63 66 65 64 61 55 56 66 68 75 76 68 73 70 62 49 47 47 46 64 59 60 66 69 74 76 77 78 79
54 54 55 59 63 61 54 44 37 52 54 68 68 66 59 63 63 63 64 60 67 65 59 55 52 67 74 68 64 64 62 50 37 37 45 59 54 62 73 78 79 81 81 81 79
54 54 54 58 61 56 44 34 42 51 63 59 64 58 59 63 64 62 63 62 66 67 56 55 57 73 73 73 70 64 57 67 50 51 45 52 59 70 75 75 77 78 79 78 80
49 48 51 60 59 50 39 37 47 59 62 63 54 60 56 60 60 60 60 68 66 70 70 63 55 69 72 74 72 67 71 55 57 41 39 53 57 58 66 70 74 75 76 78 80
47 40 55 58 56 43 33 38 48 60 62 58 56 57 59 58 62 59 61 67 70 69 70 66 60 61 69 64 62 63 61 61 61 56 43 42 51 59 66 73 73 75 77 78 79
44 35 56 57 37 39 38 45 50 55 61 59 61 57 59 61 59 57 60 66 74 72 62 66 60 53 60 70 72 69 64 63 51 49 53 47 51 74 70 75 76 76 78 79 79
39 39 52 54 31 34 43 46 50 51 55 58 56 59 63 59 55 61 62 71 70 69 65 65 57 48 54 61 68 63 66 66 64 61 52 41 50 75 76 75 77 75 77 78 78
39 33 40 43 50 43 41 44 44 53 54 59 59 62 59 58 59 58 59 68 69 69 56 60 60 54 46 54 63 58 63 64 60 48 49 52 58 66 71 71 75 75 77 78 78
40 36 43 33 36 45 46 48 45 45 53 57 57 57 57 49 54 54 61 60 66 63 65 63 54 58 60 64 65 63 62 63 61 62 54 58 60 67 71 71 71 76 77 77 77
34 42 48 47 43 43 44 44 46 50 51 50 52 57 59 53 56 53 58 60 59 65 62 65 54 56 52 61 63 59 62 65 64 65 64 65 63 74 77 76 75 77 77 75 76
42 52 50 45 42 40 41 45 47 52 55 58 57 56 55 59 61 57 62 59 63 61 59 58 55 51 44 57 57 48 59 63 65 68 66 58 66 74 73 74 75 76 77 76 75

GFSSW_sfc_temp_051.txt.gz
Temp
61 61 61 61 60 60 60 60 60 60 60 60 60 60 60 60 59 64 62 69 70 67 66 74 72 72 71 66 69 66 51 49 56 61 65 73 68 66 68 60 60 62 61 62 63
61 61 61 60 60 60 60 59 59 60 60 60 60 60 60 59 58 61 72 68 68 67 72 72 71 72 64 65 65 58 49 56 69 66 63 69 65 63 61 61 61 60 63 63 63
61 60 60 60 60 59 59 58 58 59 60 60 60 60 59 59 59 72 68 67 68 68 72 74 74 73 65 64 66 63 55 66 70 67 69 64 59 64 57 55 60 58 58 62 60
60 60 60 60 60 59 58 57 58 59 59 60 60 60 59 58 56 71 68 68 68 72 73 72 71 65 61 60 69 60 69 70 70 70 68 60 61 57 59 57 62 60 62 61 59
60 60 60 60 60 59 58 57 58 58 58 59 60 60 57 58 64 73 68 68 71 74 71 70 68 67 62 66 67 63 68 72 73 72 65 64 58 57 56 61 62 63 61 59 58
59 60 60 60 59 59 58 57 57 57 58 59 60 58 55 51 77 77 73 71 74 71 71 72 71 74 68 67 63 69 69 69 72 68 66 61 57 61 58 63 62 63 60 59 57
58 58 60 60 59 58 58 57 57 57 57 58 59 59 54 56 75 74 78 74 74 74 70 76 77 69 68 63 72 70 62 66 68 68 59 62 57 58 61 64 62 59 60 59 57
58 58 57 59 58 58 57 56 56 57 57 58 58 56 48 73 74 74 76 76 79 79 78 80 78 70 65 69 67 62 61 52 65 67 63 63 50 62 63 60 58 58 58 57 57
57 57 57 57 57 57 56 56 56 57 58 58 53 52 51 74 69 75 76 76 78 79 78 85 73 64 65 56 52 55 49 53 61 64 61 57 49 62 63 64 60 58 57 57 58
57 57 57 56 56 56 56 56 58 58 60 63 62 51 61 65 75 77 77 78 75 73 71 69 62 56 54 50 43 49 52 55 55 62 62 52 51 57 62 61 58 58 57 57 57
57 57 56 56 56 56 54 53 54 50 55 54 57 57 66 74 79 73 76 74 73 68 58 62 53 48 53 58 61 60 58 55 60 65 61 53 54 54 58 57 56 58 57 57 57
56 56 56 56 56 56 51 47 56 57 49 63 63 64 68 72 65 72 76 65 63 58 62 57 52 61 65 65 64 62 56 55 64 69 60 53 51 54 57 56 61 60 58 58 59
56 56 56 55 56 52 50 53 62 60 48 56 63 63 65 70 63 65 71 67 60 59 59 54 59 67 65 62 61 59 56 55 57 62 62 56 47 52 58 62 63 64 63 62 60
55 55 55 55 49 51 50 62 62 61 39 50 60 64 68 69 60 73 74 68 62 58 60 58 66 64 64 62 62 53 64 63 61 54 45 55 40 51 58 57 60 65 62 63 61
55 55 54 55 48 48 59 60 62 58 24 58 63 77 71 62 65 64 74 67 59 60 59 56 61 61 60 62 65 58 65 62 59 53 49 51 44 51 58 53 55 62 63 64 63
55 55 54 51 49 53 59 59 54 39 29 54 64 62 61 62 63 67 65 70 69 61 62 61 68 66 64 68 67 67 62 60 56 51 38 51 49 47 55 58 61 65 66 65 65
55 55 53 56 46 57 58 51 37 29 56 54 56 61 59 57 59 61 59 56 53 48 49 58 61 68 69 60 64 61 52 39 35 34 34 54 51 49 59 63 66 66 67 68 68
54 54 53 54 54 55 51 42 30 45 46 61 60 60 54 58 58 59 56 52 58 57 50 47 44 61 68 63 57 56 53 38 31 29 38 52 45 52 64 66 68 70 72 71 70
53 50 48 51 53 52 43 32 34 44 54 53 56 52 53 58 57 56 54 53 58 60 50 48 50 65 68 69 64 55 49 57 45 43 37 44 51 62 65 65 66 68 69 68 69
47 46 46 55 52 47 38 34 41 53 56 55 45 52 47 53 54 53 52 59 58 64 65 55 47 62 66 69 66 61 62 47 46 33 31 44 45 47 55 63 65 63 63 66 67
46 40 49 54 48 40 31 35 43 51 52 50 48 47 49 49 54 54 54 60 62 63 65 61 53 52 60 59 58 55 54 54 51 44 34 32 41 54 58 63 64 63 67 66 66
44 34 49 53 36 38 33 39 46 48 52 49 52 51 48 49 48 49 53 57 66 65 58 62 53 44 52 64 69 62 56 55 40 42 41 34 40 63 62 65 65 67 68 67 67
40 39 49 50 31 33 39 40 43 44 47 49 47 52 53 49 43 51 53 62 62 63 59 60 48 41 45 54 63 59 60 60 55 49 39 33 40 66 65 65 67 64 66 67 69
38 32 40 42 43 38 36 36 37 47 45 48 48 50 47 48 52 48 53 59 60 62 56 61 52 46 40 47 56 51 56 59 54 39 42 40 47 57 63 62 65 64 64 65 67
38 35 40 33 35 38 39 40 37 37 48 49 45 45 45 43 47 47 52 53 55 58 59 58 46 52 53 57 59 58 57 58 55 53 44 49 53 58 62 60 63 66 68 67 67
33 37 42 39 42 37 38 36 37 42 44 43 42 46 47 44 48 45 46 47 45 54 54 56 45 50 48 55 56 55 59 57 56 57 56 56 54 64 66 66 64 68 68 67 67
43 42 44 40 38 35 35 37 40 44 46 50 48 45 43 48 54 52 50 52 51 47 46 50 45 43 38 51 51 41 49 57 57 60 58 49 56 64 65 65 66 64 67 67 67

GFSSW_sfc_temp_054.txt.gz
Temp
61 61 61 60 60 59 59 59 59 59 60 60 60 60 60 60 59 61 58 68 65 66 65 70 67 66 64 59 63 61 47 44 49 58 61 65 65 62 64 59 60 62 61 62 62
61 61 61 60 59 59 59 58 58 58 59 59 60 60 60 59 57 58 67 68 67 66 70 69 66 66 59 58 60 55 45 51 60 62 60 59 57 58 60 60 59 59 61 62 61
61 60 60 60 60 59 59 58 58 58 59 59 59 60 59 58 56 66 68 67 67 68 70 70 71 67 59 58 58 54 52 64 65 68 64 57 55 61 58 54 56 54 56 61 60
61 60 60 60 60 59 58 57 58 58 58 59 59 60 59 55 53 68 68 68 68 70 69 68 66 60 57 55 60 54 64 66 66 67 62 58 59 57 58 58 61 60 61 60 58
58 60 60 60 60 59 58 58 58 58 58 58 59 60 55 54 58 72 68 68 69 71 68 67 63 61 56 60 62 60 63 67 68 63 59 62 58 57 55 58 60 61 60 58 58
58 58 58 60 60 59 58 58 57 57 57 58 59 58 52 46 71 75 70 68 70 67 67 67 66 67 63 61 58 63 64 64 65 61 63 59 57 59 58 61 60 58 57 58 56
58 58 58 58 59 59 58 58 57 57 57 58 58 58 53 51 67 68 73 69 70 70 66 70 70 64 64 61 65 65 58 61 62 60 58 58 52 54 60 60 58 56 56 57 57
58 57 57 57 57 57 57 57 57 57 58 58 58 56 48 67 65 66 67 66 72 72 72 72 73 68 63 64 62 58 55 48 59 60 60 55 49 57 58 57 55 54 55 55 57
57 57 56 56 56 56 56 56 56 58 58 58 55 51 47 68 63 68 70 69 72 72 71 79 70 63 61 53 48 50 45 49 55 62 59 56 50 56 59 60 54 54 53 53 54
57 56 56 56 55 55 55 56 57 56 57 61 60 48 56 61 70 73 69 72 69 68 66 65 60 54 51 47 38 44 45 44 49 58 56 53 51 54 59 59 55 53 52 53 52
57 56 56 56 55 55 53 51 50 49 52 51 53 53 62 70 73 69 71 69 67 62 54 58 53 46 50 52 54 54 52 50 56 63 58 53 52 54 55 55 53 53 52 52 53
56 56 56 56 55 55 51 46 49 49 42 58 59 59 64 67 60 66 70 62 60 53 57 54 51 57 59 58 56 55 52 52 58 63 61 50 52 51 53 54 55 54 53 53 54
56 56 55 55 55 51 49 51 59 54 42 53 60 59 61 63 56 60 65 62 56 53 54 51 56 62 59 57 55 55 52 52 54 60 57 53 48 49 56 58 61 60 57 57 55
55 55 54 54 49 49 48 58 58 56 37 45 54 58 62 63 54 68 68 63 57 54 55 54 63 60 57 56 57 50 60 58 57 51 44 52 39 47 52 54 58 59 56 56 57
54 55 54 55 47 45 54 58 60 51 23 55 58 70 64 59 61 60 70 62 55 55 56 52 56 56 54 57 61 55 61 58 57 49 45 47 42 47 53 50 55 58 58 58 58
54 54 54 50 47 49 55 57 53 38 26 48 61 57 55 57 58 61 60 65 62 56 56 57 63 60 59 63 62 65 58 55 51 47 37 47 45 42 47 55 57 61 62 60 59
54 54 53 54 43 51 56 49 35 27 51 49 54 58 56 53 55 56 54 52 48 43 45 55 56 62 64 57 60 58 49 37 35 33 34 50 45 47 56 60 61 61 61 62 61
54 53 53 52 50 50 49 40 29 40 43 54 55 56 53 55 55 56 52 47 53 51 45 44 41 56 62 58 54 53 51 37 32 29 36 48 42 51 61 62 66 65 65 65 63
53 49 48 48 50 48 40 31 34 40 50 48 52 48 49 55 55 54 50 49 53 55 44 42 45 61 63 64 60 54 48 54 42 40 35 41 49 57 60 60 62 63 66 64 63
48 46 46 50 50 44 35 33 41 49 50 49 41 46 41 46 49 49 49 55 54 58 59 51 43 57 62 62 61 58 60 44 42 33 30 39 44 45 53 59 61 60 63 64 66
46 40 49 50 49 39 29 35 42 49 49 44 44 45 45 44 46 46 50 56 58 58 60 56 48 49 56 53 52 52 50 51 49 42 33 31 40 51 54 60 59 60 63 62 65
44 35 46 52 35 35 32 40 45 46 50 47 47 45 45 46 44 45 47 53 61 62 53 56 50 43 49 58 61 55 54 52 40 39 39 33 41 58 58 62 63 64 64 62 65
40 39 47 47 30 31 37 39 43 43 44 43 44 47 49 43 38 45 48 56 57 57 53 56 46 36 44 52 56 52 56 57 51 45 39 33 39 59 59 61 63 62 61 63 63
37 32 39 41 40 36 35 36 36 45 43 44 43 45 44 41 45 42 45 53 55 54 51 52 49 47 40 44 50 48 54 57 52 36 40 40 46 55 59 61 65 63 64 62 62
37 34 39 32 34 36 37 39 36 36 43 45 41 41 40 36 41 41 47 49 54 52 52 51 45 49 52 55 55 54 53 54 51 49 44 48 49 55 57 59 61 63 63 64 64
33 36 40 37 40 36 37 35 35 39 41 39 38 43 43 38 40 39 44 46 46 51 48 49 41 46 44 53 54 50 54 55 54 54 53 52 50 60 64 62 60 63 64 63 63
44 43 43 39 38 35 34 35 38 40 42 45 44 42 40 43 47 48 49 49 49 49 44 43 40 37 39 49 50 40 48 51 54 54 54 46 54 61 60 61 61 61 63 63 63

GFSSW_sfc_temp_057.txt.gz
Temp
60 61 61 60 59 59 59 59 58 58 59 59 59 59 60 60 59 58 56 66 62 65 68 66 65 63 61 58 59 57 46 40 46 49 56 62 61 60 61 57 59 61 60 60 62
61 61 61 60 59 59 59 58 58 58 58 58 58 59 59 59 56 54 65 67 66 66 69 67 63 63 57 56 57 52 44 48 56 57 58 58 56 59 58 58 58 57 59 60 60
61 61 61 60 60 59 59 58 58 58 58 58 58 59 59 58 54 62 69 67 66 67 69 69 68 64 54 56 56 51 50 56 63 62 61 55 53 59 55 52 55 55 55 58 58
59 59 60 61 61 60 59 57 58 58 58 58 58 59 59 54 52 64 67 67 67 67 67 65 63 58 54 54 57 51 59 60 62 63 58 55 56 56 57 56 60 58 58 56 56
58 58 58 59 59 59 58 58 58 58 58 58 58 59 56 50 54 67 68 67 67 68 66 65 62 60 54 57 58 56 59 62 64 59 57 59 57 57 53 56 58 58 57 56 55
57 57 58 58 58 58 58 58 57 57 57 58 58 58 53 44 67 69 67 65 67 64 64 65 63 64 60 58 56 60 61 61 61 58 59 57 55 54 56 57 56 56 56 55 57
57 57 57 57 57 57 57 57 57 57 57 58 58 57 52 49 62 63 66 64 65 66 63 66 66 60 60 58 63 61 55 58 56 57 57 57 52 52 56 57 55 54 54 57 56
57 57 56 56 56 56 56 56 56 56 57 58 58 55 47 64 60 62 61 62 67 68 68 69 68 63 60 62 60 55 51 46 55 58 59 56 49 53 55 55 53 53 53 56 58
57 56 56 56 55 55 55 55 56 57 58 58 54 52 46 64 60 65 65 64 67 68 67 74 66 60 58 51 46 46 42 45 52 59 55 53 50 53 54 56 52 52 52 52 50
56 56 56 56 55 55 54 55 57 55 56 58 59 47 54 58 66 69 64 67 65 65 62 62 58 52 48 46 37 41 43 40 46 52 52 47 51 52 54 54 53 51 51 50 51
56 56 56 56 55 55 53 51 48 47 49 49 52 52 58 66 69 65 68 64 65 60 51 56 49 46 52 51 51 50 47 45 51 58 55 52 49 53 53 52 50 50 50 50 50
56 56 56 55 55 54 51 45 48 51 41 53 53 55 61 63 55 62 68 59 57 50 54 51 47 56 56 55 52 50 47 47 53 59 55 53 51 52 51 51 52 52 50 50 51
55 55 55 55 54 51 46 49 59 57 41 48 54 54 58 59 53 56 62 59 54 50 51 47 53 60 56 52 50 50 47 48 49 55 52 49 48 47 54 54 56 55 54 53 52
55 55 54 54 49 49 46 56 57 57 35 43 49 55 60 59 51 65 66 61 55 52 51 50 59 56 53 52 52 45 55 54 52 48 42 49 37 47 49 52 54 55 53 53 53
54 54 54 54 46 45 53 56 56 51 21 52 54 65 60 55 57 58 65 59 52 52 53 49 52 53 52 54 56 50 56 54 52 47 43 44 39 45 48 49 54 55 55 54 55
54 54 54 50 47 47 51 54 51 36 25 46 57 52 51 53 55 58 56 62 60 53 52 55 57 56 55 59 58 60 54 51 47 44 35 44 42 40 44 51 56 57 57 56 56
54 54 53 52 42 49 50 47 36 27 48 46 51 53 52 49 52 55 50 50 47 41 41 51 51 56 59 53 56 53 46 35 34 32 33 46 41 44 53 57 60 59 59 58 58
53 53 52 51 49 49 45 38 29 38 39 51 52 54 49 51 52 53 49 45 50 48 42 41 37 52 58 55 52 51 48 35 31 29 35 45 39 48 57 62 62 62 63 61 58
53 49 47 47 49 47 37 29 34 39 46 43 49 44 47 53 51 50 47 47 53 51 44 40 42 57 58 60 58 50 44 52 39 37 33 39 46 54 58 58 56 57 59 59 58
47 46 47 48 50 45 33 31 37 48 46 46 39 44 40 44 46 45 46 52 52 57 55 47 40 55 58 58 58 55 56 42 40 31 29 36 39 42 51 56 57 56 56 59 62
45 40 49 51 48 39 28 33 40 47 47 41 40 40 41 42 45 45 47 52 56 55 56 53 45 46 54 49 49 49 47 47 47 39 32 30 36 49 53 56 57 58 58 59 61
44 35 47 51 35 36 31 37 45 44 48 45 45 44 41 42 41 44 46 49 56 55 50 52 45 41 47 56 57 54 50 49 38 37 36 31 41 55 55 56 57 58 60 58 60
39 38 46 47 30 31 37 37 41 42 42 42 42 44 47 41 38 41 45 52 55 53 49 51 43 38 42 47 52 49 51 52 48 42 36 33 40 56 56 56 58 59 59 61 59
36 32 38 40 38 37 33 34 35 44 42 43 41 43 42 39 43 40 42 50 53 53 51 50 45 42 37 43 49 46 51 53 49 37 38 40 47 52 55 57 59 60 61 59 60
36 33 39 32 33 37 38 38 33 35 42 43 39 40 38 33 37 37 44 47 51 53 52 47 38 42 47 51 53 52 50 50 47 48 43 47 45 54 56 57 60 62 60 61 60
32 35 39 34 39 36 37 35 35 37 39 37 36 39 40 36 38 35 41 43 43 48 47 49 37 38 39 49 50 48 52 53 52 50 48 49 47 56 60 60 57 60 61 60 60
43 42 41 37 35 34 34 36 37 40 41 43 41 38 36 40 44 45 45 45 46 45 43 42 38 36 32 41 45 38 46 51 51 52 51 44 50 58 57 57 58 60 59 60 62

GFSSW_sfc_temp_060.txt.gz
Temp
60 61 61 60 60 59 59 59 58 58 58 59 59 59 59 59 58 55 54 65 61 65 67 63 63 61 59 55 55 54 44 39 44 46 54 60 58 58 59 56 57 59 58 58 61
60 61 61 61 60 60 59 59 58 58 58 58 58 58 59 58 55 50 63 66 65 66 65 64 60 61 55 54 54 51 43 46 53 54 56 59 55 56 55 55 56 55 57 60 59
59 59 60 60 59 59 59 58 58 58 58 58 58 59 58 58 52 60 67 66 66 67 67 66 65 62 53 53 53 50 48 53 58 59 58 53 51 57 53 52 56 54 54 59 59
58 58 59 59 59 59 58 57 58 59 59 58 59 59 58 54 51 62 67 67 66 65 67 64 60 55 52 51 55 48 56 57 60 59 55 53 54 53 55 57 58 57 56 58 57
57 58 58 58 59 58 57 57 57 58 58 58 59 58 55 47 52 64 68 66 64 67 64 63 59 57 53 54 55 52 57 59 62 59 55 57 55 54 54 56 57 57 57 56 57
57 57 57 58 58 57 57 57 56 57 57 57 58 58 49 42 63 64 64 61 64 63 63 64 61 61 56 56 54 58 58 58 59 58 56 55 52 53 56 56 55 57 55 57 57
57 57 57 57 57 57 56 56 56 56 57 57 58 55 48 49 59 61 62 60 63 63 62 64 64 58 57 54 60 58 52 55 56 53 54 55 50 49 55 55 54 53 53 56 57
57 57 56 56 56 56 56 55 55 56 57 57 58 52 44 63 57 59 57 60 64 64 64 66 65 60 58 60 57 51 49 43 53 54 54 55 47 51 53 53 52 52 54 56 56
57 56 56 55 55 55 55 55 56 57 57 57 52 51 44 64 58 62 62 60 63 64 63 72 63 57 55 50 46 45 39 42 50 55 52 50 48 50 52 53 51 51 51 55 52
56 56 56 55 55 54 54 54 57 56 57 57 58 46 54 58 64 65 60 63 61 61 59 57 54 49 47 45 39 40 40 38 43 50 49 46 49 50 52 52 52 50 50 52 49
56 56 56 55 55 54 52 49 48 47 49 46 48 49 57 64 67 61 63 60 59 56 49 52 46 43 50 49 49 48 44 42 47 53 50 50 48 54 51 49 49 50 51 50 49
55 55 55 55 55 54 49 44 47 49 40 50 50 50 56 60 51 59 64 56 53 48 52 48 45 53 56 53 51 48 43 44 50 55 52 48 49 51 49 49 51 51 50 49 49
55 55 55 54 54 49 45 47 57 55 40 46 51 51 56 57 51 55 60 57 51 48 50 47 50 57 54 49 48 46 44 44 46 50 50 46 46 48 52 51 52 52 52 51 50
54 54 54 53 48 46 44 55 56 54 34 39 45 51 57 56 48 64 64 59 52 49 49 48 55 53 50 49 50 43 52 51 49 44 38 46 34 45 48 50 51 52 51 51 51
54 54 53 54 44 43 50 54 55 49 21 49 51 62 59 53 55 56 64 57 50 50 50 47 48 50 48 50 53 50 53 50 49 43 40 41 37 43 46 50 52 52 52 52 52
54 54 53 50 47 48 50 50 49 34 25 43 53 50 49 52 54 56 55 57 57 51 49 51 53 53 54 56 55 58 52 48 44 42 33 43 40 38 44 51 53 54 55 54 52
54 54 51 51 45 47 48 45 32 27 45 44 46 50 48 46 49 52 49 47 46 40 40 48 49 52 56 50 52 51 44 34 32 31 32 44 39 45 52 54 56 57 55 55 54
53 52 50 51 52 48 44 35 26 37 39 49 49 48 44 49 48 50 46 42 49 46 42 41 36 49 54 52 47 47 47 34 30 29 34 42 37 47 55 58 59 58 58 55 53
52 45 47 49 50 48 39 26 31 38 44 41 45 43 44 50 48 50 45 44 50 51 43 39 40 53 54 56 56 47 41 50 37 34 32 37 44 53 57 57 55 54 55 54 53
41 42 46 50 52 45 34 29 36 45 44 44 37 42 38 42 44 44 45 50 50 55 53 46 39 53 55 56 53 52 53 40 37 30 28 34 37 42 51 54 56 54 54 55 54
43 38 47 52 48 38 29 29 37 45 46 41 39 38 40 39 42 43 45 49 52 52 53 48 43 45 52 46 46 47 44 44 44 37 32 30 35 47 52 55 54 55 56 55 55
41 33 47 49 35 34 31 34 43 41 46 43 43 41 40 41 40 41 43 47 52 52 47 50 44 38 46 53 54 49 46 48 37 35 35 32 41 53 54 55 54 55 57 57 57
37 38 46 47 30 31 35 35 39 40 41 41 39 41 43 39 37 42 43 50 51 51 47 51 41 33 38 45 48 45 48 49 45 40 35 34 38 55 55 55 55 55 57 57 57
36 30 37 40 39 35 33 33 34 42 40 41 40 41 40 37 42 39 41 48 50 51 50 50 45 38 34 40 47 42 47 50 47 35 35 36 43 51 54 55 58 56 57 58 58
37 32 38 31 33 37 37 36 34 34 40 42 37 38 37 33 35 35 42 42 48 52 50 46 38 40 43 46 47 48 48 47 44 43 39 43 43 52 54 55 57 59 60 59 61
32 34 38 35 39 35 36 33 35 37 38 35 35 38 38 33 36 34 38 39 40 45 44 47 36 37 38 44 44 41 47 48 47 46 45 46 45 55 57 56 56 57 58 58 59
41 41 39 36 35 32 33 36 35 40 39 41 39 37 34 38 42 44 43 43 43 41 39 39 36 33 31 39 39 33 41 46 49 51 48 44 49 56 54 55 56 58 58 59 60

GFSSW_sfc_temp_063.txt.gz
Temp
60 60 60 60 60 60 60 59 58 58 59 59 59 59 59 59 58 58 55 69 64 65 67 67 70 70 69 67 67 65 59 54 56 55 63 67 65 65 66 65 64 65 64 65 66
60 60 60 60 59 59 58 58 58 58 59 59 59 59 58 58 55 53 64 66 65 66 69 69 65 67 66 65 65 64 57 58 63 64 65 68 66 67 63 62 62 62 64 64 65
59 59 59 59 59 59 58 57 57 58 58 58 58 59 58 58 54 63 67 66 66 67 72 73 69 69 64 64 63 60 59 61 65 67 67 65 62 66 63 62 64 62 62 62 62
58 58 58 59 59 58 58 57 57 58 58 58 59 59 58 56 54 67 67 66 66 69 72 69 67 64 62 60 64 59 63 65 68 66 65 62 64 61 62 64 64 65 63 62 59
57 57 58 58 58 58 57 57 57 57 57 58 58 58 55 50 55 68 67 67 67 69 69 67 65 63 60 62 62 59 64 65 67 66 64 63 63 63 61 64 63 62 61 60 60
57 57 57 57 58 57 57 57 56 56 57 58 58 58 52 44 68 66 65 66 67 68 68 68 67 67 64 63 62 64 64 66 66 66 65 62 61 60 65 64 60 59 59 60 60
57 57 57 57 57 57 56 56 56 56 57 57 58 57 47 49 66 65 63 66 68 68 66 69 70 66 66 61 66 64 60 63 65 65 63 63 60 58 65 62 56 57 58 59 61
57 57 56 56 56 56 55 55 55 56 57 57 58 54 44 63 63 61 62 63 67 68 66 71 71 67 65 66 62 60 58 54 62 60 60 62 57 63 62 60 55 56 56 59 60
56 56 56 55 55 55 55 55 55 57 57 57 53 50 45 65 59 65 64 62 65 67 68 72 68 63 63 58 55 53 51 51 57 62 60 60 58 62 59 59 59 58 56 58 59
56 56 55 55 55 54 54 54 56 56 57 58 57 50 54 57 65 66 63 65 64 63 63 62 61 57 55 56 46 49 49 51 53 58 58 57 58 65 60 59 60 60 58 55 56
55 55 55 55 55 54 52 49 49 48 50 47 49 51 54 61 67 65 64 62 64 60 53 57 53 49 54 56 56 54 52 51 56 60 58 57 57 62 61 58 58 60 59 55 54
55 55 55 55 54 54 50 46 48 48 38 51 50 50 56 59 49 59 66 58 56 52 55 52 48 57 57 57 56 55 52 52 57 58 58 59 59 65 60 60 60 61 60 57 55
54 55 54 54 54 50 47 47 57 54 39 46 52 50 52 55 49 53 62 59 55 50 52 51 55 58 56 53 52 52 51 51 52 55 58 56 56 60 63 60 59 61 63 61 57
54 54 53 53 48 47 45 54 55 53 35 40 45 50 56 56 48 61 65 60 55 51 52 53 58 54 54 52 55 48 55 55 52 51 48 57 46 56 62 60 59 62 61 61 59
54 54 53 54 48 45 50 53 54 48 23 49 50 63 59 53 56 55 65 60 53 52 53 50 51 52 51 54 56 54 57 55 54 51 49 50 48 54 56 60 65 66 62 63 61
53 54 53 50 48 50 51 50 48 33 25 44 53 50 49 53 54 57 56 62 62 53 54 55 58 58 59 57 58 60 56 53 51 49 40 50 49 53 56 61 64 66 65 63 62
53 53 52 53 45 50 50 46 32 25 46 42 44 50 49 48 49 52 49 48 48 42 43 51 53 58 59 54 56 57 53 42 39 38 40 49 46 54 61 65 64 66 69 64 63
53 52 50 50 51 51 47 36 24 38 39 49 47 47 44 50 49 50 47 44 52 51 47 43 40 53 58 55 52 52 53 43 35 36 42 47 44 56 64 67 66 67 67 66 62
51 45 45 48 51 48 39 26 31 37 43 41 44 42 43 48 48 49 46 46 51 52 45 43 44 56 56 58 59 51 47 56 43 41 41 47 51 59 65 66 66 67 64 63 62
42 41 42 49 49 45 34 31 35 44 44 43 36 41 37 41 42 46 45 49 49 55 56 49 42 54 57 60 58 57 58 46 45 37 34 42 44 50 59 62 65 65 66 65 64
41 37 46 49 48 39 29 32 37 45 45 40 38 37 39 39 42 42 44 49 50 51 56 52 49 48 54 51 50 52 50 50 51 45 40 38 45 56 60 63 63 64 65 66 65
40 31 46 48 34 35 31 35 42 42 46 44 44 41 40 41 40 41 41 46 51 52 48 53 47 40 47 55 58 57 53 53 44 40 42 41 47 59 62 62 61 64 65 67 67
36 37 46 45 29 30 35 35 39 40 42 41 40 41 44 40 37 41 43 50 51 51 48 50 44 38 42 50 53 51 54 53 49 46 44 39 46 60 60 63 64 62 66 67 67
36 30 37 39 39 34 33 33 33 41 40 42 40 43 41 38 43 40 41 48 49 51 49 51 46 41 37 42 47 45 49 53 52 41 44 44 50 57 60 63 67 66 66 67 67
36 31 36 29 31 33 36 36 33 34 41 42 38 39 39 35 37 38 44 44 49 49 51 49 39 43 44 46 46 46 47 50 48 50 45 50 49 57 58 62 67 67 64 64 66
32 34 37 35 37 33 34 34 34 37 39 36 36 39 40 36 38 37 40 41 41 46 44 47 40 41 40 46 47 44 48 49 50 50 50 51 51 60 63 61 61 64 65 66 66
40 41 38 36 34 32 33 36 36 40 41 44 41 39 36 39 44 44 45 45 44 41 40 41 40 38 36 40 42 39 44 47 50 52 51 46 55 62 61 60 60 63 65 64 65

GFSSW_sfc_temp_066.txt.gz
Temp
60 60 60 60 59 59 59 59 58 59 59 59 59 59 59 59 59 72 68 75 74 65 68 79 79 81 83 80 80 80 69 67 69 69 71 78 73 80 80 77 76 76 75 77 75
60 60 60 60 59 59 59 58 58 58 59 59 59 59 59 58 65 69 75 67 65 66 79 77 76 78 77 77 77 74 69 71 76 77 73 77 77 77 73 77 76 75 76 74 73
59 59 59 59 59 59 58 57 57 58 58 58 58 59 58 61 67 75 67 66 66 68 84 83 82 78 74 77 75 74 68 77 75 78 78 77 77 77 75 74 78 75 75 73 71
58 58 58 59 59 59 58 57 57 58 58 58 59 59 59 66 59 78 67 67 66 77 79 78 77 72 71 69 77 68 74 77 78 78 76 74 78 75 76 76 76 77 75 72 68
57 57 58 58 58 58 57 57 57 57 57 58 58 59 63 63 67 82 69 71 76 77 77 76 73 73 69 73 74 68 74 77 78 78 76 77 74 75 75 80 77 74 72 70 68
57 57 57 57 57 57 57 56 56 56 57 57 58 58 60 53 76 77 75 76 78 77 77 79 76 78 73 73 71 75 74 76 77 77 77 71 75 70 78 80 74 72 72 69 67
57 57 57 57 57 57 56 56 56 56 56 57 58 61 56 59 73 77 76 75 77 77 75 79 81 74 75 70 76 74 68 73 74 76 75 75 70 70 80 75 72 72 71 70 69
57 57 56 56 56 56 55 55 55 56 57 57 58 58 53 74 74 68 73 74 76 77 75 80 80 75 72 75 70 68 69 63 75 75 74 71 63 77 76 74 71 72 70 69 70
56 56 55 55 55 55 55 55 55 57 58 58 59 57 56 69 64 72 73 67 73 75 76 77 75 71 72 65 64 65 60 63 67 74 71 69 67 73 73 73 73 71 71 70 71
56 56 55 55 55 54 54 55 58 57 62 64 64 52 63 63 69 70 70 69 67 69 68 68 69 65 66 64 53 59 60 65 64 69 69 69 68 76 77 73 72 75 73 71 70
56 55 55 55 55 54 57 64 60 57 57 53 57 56 60 69 72 67 66 66 68 66 59 64 60 56 63 65 67 66 64 63 68 70 65 67 69 74 78 74 72 74 74 71 70
55 55 55 55 54 54 61 55 48 51 41 56 57 58 63 66 55 62 66 59 59 56 63 60 54 63 68 68 64 63 61 62 68 68 66 68 68 75 78 76 77 76 75 74 70
55 55 55 54 54 58 57 55 62 57 46 51 58 56 58 61 52 56 62 58 57 56 59 57 59 64 64 62 59 61 60 62 62 64 68 65 64 70 77 75 75 75 78 77 72
54 54 53 53 53 58 56 60 63 59 39 48 51 56 57 60 50 62 64 57 56 54 59 59 65 61 61 59 62 56 66 64 62 59 56 65 54 67 72 73 75 77 74 75 74
53 54 53 53 55 54 57 62 62 55 31 53 55 67 61 56 59 58 65 58 49 54 59 56 58 57 57 61 65 59 67 62 62 59 59 61 56 65 69 68 73 78 78 76 75
53 53 53 57 57 59 62 60 57 37 32 48 56 54 51 54 56 59 57 61 59 49 50 55 66 62 63 66 66 66 62 61 61 60 48 58 58 61 68 68 72 77 78 77 77
53 53 54 59 52 57 59 56 38 33 52 46 48 53 52 52 53 54 48 48 48 41 41 49 57 64 65 61 65 63 58 48 46 46 45 61 56 61 71 73 75 75 78 79 78
52 52 55 58 61 58 52 42 30 43 45 54 50 53 49 54 53 52 49 44 52 52 48 42 41 58 62 62 57 58 58 51 40 43 50 59 51 62 73 77 77 79 79 78 77
51 55 53 57 59 54 40 31 39 44 48 45 50 47 48 51 50 51 50 50 52 56 48 45 45 61 62 64 64 57 53 64 52 51 50 56 60 67 73 75 76 77 77 77 77
50 50 52 59 58 48 35 33 42 50 48 48 41 46 41 45 46 44 46 52 51 58 61 55 46 58 60 64 66 62 66 51 53 41 40 51 54 56 65 69 73 75 77 77 76
47 42 56 59 54 41 31 37 44 52 51 44 42 42 44 43 46 42 38 46 51 53 59 57 53 52 59 55 57 58 56 57 59 55 46 43 53 65 68 71 71 75 77 77 77
45 33 53 54 36 39 33 42 44 48 53 49 48 46 44 45 44 44 38 44 51 52 50 56 52 48 53 62 66 65 59 59 50 48 52 51 54 68 69 73 72 74 77 78 78
38 42 52 50 32 34 38 42 44 45 47 48 46 47 49 44 41 46 39 49 52 49 49 54 50 44 47 55 60 57 60 60 59 57 50 44 53 69 67 72 75 74 78 80 78
39 31 41 42 43 39 38 39 39 48 47 50 47 47 46 44 48 44 45 45 48 50 48 53 51 48 44 48 53 51 56 60 56 48 50 52 56 63 66 69 72 76 78 79 79
37 33 44 32 35 38 39 40 36 39 46 49 45 45 43 39 42 42 47 49 48 50 51 51 39 46 49 50 51 50 51 55 55 56 50 55 57 63 67 69 72 74 75 76 77
33 34 41 41 37 35 35 35 37 43 44 42 42 45 45 41 44 40 44 46 44 48 48 51 40 45 44 50 51 48 53 55 56 57 56 57 57 69 70 71 71 70 74 76 77
40 42 38 40 39 37 36 39 38 42 46 49 46 42 40 44 48 50 51 50 49 45 43 44 41 41 38 47 47 42 50 53 54 58 57 53 59 66 65 66 68 70 69 71 75

GFSSW_sfc_temp_069.txt.gz
Temp
60 60 60 60 59 59 59 59 58 58 59 59 59 59 59 59 59 76 75 79 76 67 66 84 84 85 87 84 87 87 71 69 73 75 77 84 77 85 88 83 85 84 82 84 82
60 60 60 59 59 59 59 58 58 58 58 59 59 59 59 58 66 74 73 68 68 67 77 82 78 82 79 80 83 77 71 72 83 83 80 83 82 83 80 81 82 84 86 84 82
59 59 59 59 59 59 58 58 58 58 58 58 59 59 58 61 70 78 68 67 67 69 79 87 86 82 76 81 80 78 70 80 83 83 84 82 82 85 80 77 82 79 82 83 80
59 59 59 59 59 59 58 57 57 58 58 58 58 59 59 66 60 79 70 68 66 78 79 82 81 77 73 73 81 73 79 80 82 84 81 79 83 80 81 80 86 84 83 82 77
58 58 58 58 58 58 57 57 57 57 57 58 58 58 63 66 69 88 72 73 81 78 77 78 77 76 71 76 79 75 78 81 83 83 82 82 79 78 80 86 89 84 79 79 78
57 57 57 57 57 57 57 57 56 56 57 57 58 57 61 55 82 86 83 82 83 80 79 81 79 82 77 76 76 80 79 79 81 82 81 78 78 80 82 87 86 82 80 79 77
57 57 57 57 57 57 56 56 56 56 57 57 58 63 60 63 83 86 83 80 80 80 77 82 84 79 79 73 80 79 72 76 78 80 79 81 73 75 84 86 82 82 81 80 79
57 57 56 56 56 56 55 55 55 56 57 57 58 65 58 79 84 80 81 78 81 82 79 82 84 78 76 80 76 71 72 64 77 79 80 78 65 79 86 83 80 81 81 79 79
56 56 56 55 55 55 55 55 55 56 58 59 62 62 60 73 71 78 80 73 75 77 80 81 79 72 73 67 65 68 62 65 70 80 78 74 69 80 82 81 80 81 81 79 79
56 56 56 55 55 54 54 54 60 59 61 70 69 58 65 66 75 76 77 73 70 67 70 71 70 65 66 65 54 61 63 67 67 76 75 73 71 78 82 80 79 81 81 80 78
56 56 55 55 55 54 57 69 66 61 65 61 63 62 68 76 77 74 76 71 67 61 51 67 61 57 62 64 67 69 68 67 72 78 72 71 72 77 82 82 79 80 81 80 79
55 55 55 55 55 55 59 60 56 57 46 61 62 63 68 70 61 68 72 62 57 50 56 61 56 64 67 68 67 67 65 65 72 76 70 70 71 77 81 82 82 81 81 82 79
55 55 55 54 54 57 63 61 68 65 51 59 64 63 65 67 59 62 68 62 53 48 50 51 63 66 64 64 63 65 63 64 65 72 72 69 67 72 79 82 83 83 84 85 81
54 54 54 53 53 61 60 66 69 64 44 56 60 63 64 63 56 69 72 62 50 45 48 54 65 62 60 60 66 59 69 68 66 64 57 72 57 70 76 77 79 81 81 83 82
54 54 53 53 57 58 64 68 67 58 36 58 60 72 66 60 63 62 71 62 49 45 47 46 57 59 57 61 66 62 70 68 66 63 62 62 60 67 75 73 77 80 82 82 83
53 53 53 58 58 61 67 66 60 41 36 53 61 59 58 62 60 63 62 65 60 48 48 48 59 57 61 66 67 70 66 66 65 62 50 59 60 62 70 73 75 80 83 83 83
53 53 53 60 54 64 64 54 42 37 58 53 54 58 58 58 58 58 51 49 44 35 39 47 50 59 62 59 65 65 60 49 46 47 46 64 61 64 74 77 78 78 82 83 84
53 52 56 61 60 62 58 46 34 49 51 60 57 57 54 59 58 56 52 46 50 46 41 36 36 54 62 62 58 61 60 51 41 43 51 65 55 65 77 80 81 81 83 84 83
52 56 55 58 62 59 45 36 43 50 56 52 54 50 53 56 54 56 52 50 50 51 37 42 41 57 58 64 62 59 55 65 55 55 52 59 64 71 75 76 79 80 81 82 83
54 52 53 61 62 51 37 36 48 55 54 53 45 52 47 52 50 50 50 50 47 53 55 48 41 55 55 62 63 60 67 52 56 41 40 53 58 60 67 71 76 77 78 81 83
51 42 58 63 57 41 32 40 48 56 57 49 48 49 50 49 50 45 44 47 47 48 53 54 50 48 57 52 53 54 56 59 59 56 45 44 54 71 70 72 74 77 79 80 80
50 35 57 60 37 41 34 44 50 51 56 53 53 50 49 50 48 47 39 46 48 48 46 55 50 43 51 62 63 61 59 59 50 49 55 52 53 73 74 75 76 77 80 81 82
39 45 57 51 33 37 43 46 50 48 50 51 50 53 54 49 43 50 47 49 48 46 44 45 47 39 43 53 62 56 60 62 60 57 45 44 53 73 73 72 77 77 80 82 82
39 33 45 45 46 42 41 42 43 52 50 52 51 54 51 46 50 46 48 48 49 46 47 49 47 44 42 48 57 53 59 62 59 50 51 52 57 66 70 70 72 77 79 81 82
38 36 44 34 39 43 44 43 42 44 50 53 48 50 46 40 43 44 50 52 53 47 47 49 38 44 52 52 56 55 56 59 57 57 51 56 58 65 68 69 71 74 76 78 80
34 39 46 43 46 42 42 41 41 46 47 45 46 50 50 45 46 44 49 49 46 50 45 46 38 38 44 53 53 52 56 56 57 58 58 59 57 68 71 73 70 71 74 75 78
44 49 43 40 43 39 39 43 43 47 49 50 49 49 47 48 51 53 54 53 52 48 44 43 39 35 35 44 47 41 51 53 54 59 59 53 59 65 66 66 68 69 71 68 71

GFSSW_sfc_temp_072.txt.gz
Temp
60 60 60 60 59 59 59 59 58 58 59 59 59 59 59 59 58 70 70 76 75 68 68 80 80 80 83 80 83 84 67 63 67 70 75 86 79 84 87 83 84 86 83 85 83
60 60 60 59 59 59 59 58 58 58 58 58 58 59 59 58 60 67 76 68 68 68 78 76 76 78 75 76 79 74 67 67 76 79 79 83 83 82 81 80 80 83 87 84 83
59 59 59 59 59 59 58 58 57 58 58 58 58 59 58 60 61 74 68 68 67 68 77 80 81 79 72 76 75 74 67 75 78 82 83 80 80 85 80 76 80 79 81 84 81
58 59 59 59 59 58 58 57 57 58 58 58 58 59 58 60 56 80 70 69 68 77 77 75 74 72 70 69 77 69 76 77 78 82 81 79 82 79 80 79 84 86 85 83 80
57 57 58 58 58 58 57 57 57 57 57 58 58 59 59 62 65 84 71 72 79 78 75 74 71 72 67 72 74 72 75 79 81 81 81 82 78 77 78 84 87 88 82 79 79
57 57 57 57 57 57 57 56 56 56 57 57 58 58 55 50 80 87 85 83 82 82 77 76 74 77 73 72 72 76 77 77 80 79 80 77 77 79 79 85 84 85 82 80 79
57 57 57 57 57 56 56 56 56 56 56 57 58 60 55 58 81 81 81 81 82 79 74 80 81 75 76 70 78 76 70 74 76 78 76 79 72 73 82 84 82 83 83 81 80
57 56 56 56 56 56 56 56 55 56 56 57 58 60 53 76 82 79 81 79 81 81 79 79 78 73 71 76 73 69 69 61 72 76 78 76 63 76 84 82 81 81 82 81 80
56 56 56 55 55 55 55 55 55 56 57 59 58 59 56 76 72 79 81 72 77 79 79 80 75 65 69 63 59 64 56 60 65 77 76 74 67 77 83 81 79 80 81 80 79
56 56 56 55 55 54 54 55 58 59 64 68 68 59 65 65 75 77 80 76 71 71 68 68 66 59 61 58 48 53 57 61 63 73 75 72 70 76 80 80 78 79 81 80 78
56 56 55 55 55 54 56 59 64 59 63 61 62 62 66 76 77 74 78 72 70 65 56 62 54 51 57 61 62 62 61 61 69 75 72 70 70 74 79 79 77 78 79 79 78
56 55 55 55 54 54 56 56 59 59 48 60 62 63 68 70 61 67 76 62 61 54 60 53 48 56 61 64 62 60 57 59 68 75 72 70 69 74 78 79 80 79 79 80 79
55 55 55 54 54 55 58 62 69 66 48 56 67 66 68 69 61 63 70 65 58 54 53 46 53 58 54 60 58 59 57 59 61 69 72 68 64 68 76 80 82 83 83 83 79
54 54 54 53 51 58 59 68 70 62 41 55 59 65 67 66 59 70 72 65 54 50 53 44 51 54 49 51 60 53 65 64 63 61 54 69 52 66 72 74 78 80 79 80 81
54 54 54 53 52 53 62 68 67 57 31 60 62 74 69 61 63 63 72 66 53 50 48 45 47 49 47 52 62 56 63 61 63 60 59 60 56 62 72 70 75 78 79 79 81
54 54 54 55 56 58 65 64 57 35 33 54 63 60 59 62 63 65 63 66 62 53 52 50 56 49 48 55 60 63 58 55 60 59 47 57 56 57 65 71 76 80 81 80 80
54 54 53 58 50 59 58 54 36 33 59 55 56 59 59 57 61 60 54 51 47 38 40 46 47 51 53 46 56 56 47 38 40 43 43 59 56 59 71 75 76 77 80 81 80
53 52 55 58 60 59 55 42 31 48 51 61 58 58 53 59 60 58 54 48 53 49 42 36 34 47 52 50 47 51 49 43 34 38 46 60 52 62 76 80 80 81 82 82 80
53 53 53 57 58 56 41 30 39 48 56 55 57 49 51 58 57 56 53 52 54 53 38 38 40 54 54 54 52 48 45 56 49 51 46 55 62 70 75 75 77 78 79 79 81
50 48 49 61 57 49 35 33 45 55 57 55 45 51 47 53 51 52 50 49 46 53 56 45 34 50 52 56 52 50 55 44 50 36 33 50 53 57 66 70 74 75 76 79 81
45 39 54 60 56 39 29 37 46 54 55 50 48 47 50 50 52 50 49 43 49 48 52 48 39 43 46 43 44 48 49 51 54 51 41 40 49 59 66 72 72 74 76 77 78
41 33 57 58 35 36 31 41 48 52 56 53 53 50 48 50 48 48 48 45 51 50 43 47 42 37 43 55 56 55 50 52 44 42 50 47 50 68 72 74 75 75 78 78 80
38 44 54 49 31 34 41 43 47 48 50 50 49 52 53 48 44 49 50 52 51 47 41 43 40 34 39 49 50 47 50 51 52 50 44 39 49 69 72 72 75 75 77 79 79
38 32 44 43 45 40 39 40 42 52 50 52 51 54 50 47 51 45 45 50 51 49 45 46 41 38 35 39 42 44 50 53 50 40 44 45 53 58 66 69 72 74 75 76 77
38 35 42 34 37 40 41 39 41 43 51 53 48 48 48 42 46 44 50 49 48 46 47 42 35 39 40 43 46 45 48 50 49 52 47 52 53 59 59 64 70 71 74 74 75
35 38 45 38 42 42 42 39 41 43 47 45 45 49 50 45 47 43 48 47 44 49 47 45 35 38 38 46 47 39 51 52 50 53 56 58 54 65 68 70 67 66 66 66 68
44 48 42 39 40 38 38 42 44 47 48 48 47 46 45 49 51 51 53 48 48 46 43 43 37 34 30 39 42 40 46 49 52 56 54 48 52 63 63 65 63 63 64 63 65

GFSSW_sfc_temp_075.txt.gz
Temp
60 60 60 60 59 59 59 59 58 58 59 59 59 59 59 59 58 59 57 65 66 69 68 72 72 70 68 63 67 64 55 51 54 58 64 75 73 73 77 72 76 78 76 75 75
59 60 60 59 59 59 59 58 58 58 58 59 59 59 59 58 54 55 65 69 68 68 69 68 67 68 60 60 62 60 53 55 64 67 67 72 66 72 72 71 72 72 73 75 75
59 59 59 59 59 59 58 57 57 58 58 58 58 59 58 57 54 66 69 68 68 67 68 70 71 69 60 63 61 60 56 64 67 71 73 68 68 73 68 64 71 70 69 72 72
58 58 58 59 59 58 57 57 57 58 58 58 58 59 58 55 51 67 68 69 68 69 69 68 65 58 56 57 65 57 65 67 69 73 72 69 70 70 69 70 75 75 75 72 70
57 57 58 58 58 58 57 57 57 57 57 58 58 58 54 52 56 71 68 69 69 72 69 67 63 60 56 61 63 62 65 69 72 73 73 73 69 68 70 74 75 78 75 72 69
57 57 57 57 57 57 57 56 56 56 57 57 58 58 50 43 70 75 73 73 74 68 69 69 66 67 63 63 62 67 67 68 71 71 72 70 70 65 71 74 75 77 70 71 71
57 57 56 56 56 56 56 56 56 56 56 57 57 57 49 48 66 67 69 68 72 70 66 70 69 63 63 60 69 67 61 65 67 69 67 72 63 66 71 74 73 72 70 71 70
57 56 56 56 55 55 55 55 55 56 57 57 58 53 45 66 65 66 69 69 73 73 70 71 70 64 60 64 64 59 60 52 63 67 70 64 57 67 72 69 69 70 70 71 70
56 56 55 55 55 55 55 55 55 56 57 58 51 49 47 71 63 68 71 68 70 71 69 76 67 59 59 51 49 52 46 50 58 69 68 65 60 70 72 73 69 66 68 68 68
56 56 55 55 54 54 54 54 56 56 60 63 61 49 57 59 70 72 72 72 65 64 63 60 55 50 49 45 39 45 48 50 54 64 66 62 62 69 71 70 69 67 67 66 68
56 55 55 55 54 54 51 48 51 49 53 51 54 53 59 68 70 66 70 68 64 59 48 55 44 41 46 51 53 54 53 51 59 67 65 63 64 66 69 67 64 64 67 65 68
55 55 55 54 54 54 50 45 55 53 42 56 56 56 61 63 55 62 68 57 55 47 52 48 41 50 56 57 56 54 51 50 58 64 63 62 61 65 66 65 67 68 65 66 66
55 54 54 54 53 50 49 52 62 59 39 48 58 57 59 63 56 58 63 57 52 48 48 44 51 56 52 52 50 48 47 53 53 61 63 61 58 59 67 69 71 70 72 70 69
54 54 53 53 48 48 49 61 61 58 34 44 54 62 65 64 55 66 66 59 51 46 46 43 50 48 47 48 51 41 53 56 57 54 41 57 44 54 63 66 70 71 68 68 70
54 53 53 53 45 43 53 58 60 52 21 55 57 71 66 57 60 60 66 58 48 47 45 42 44 44 42 48 53 46 55 53 52 45 45 47 47 52 60 61 65 69 67 66 70
53 53 53 49 45 49 57 55 50 33 24 51 58 55 55 57 58 59 57 59 56 48 49 46 52 47 45 53 54 53 48 51 48 45 34 45 47 48 55 60 66 72 70 68 69
53 53 51 52 40 53 55 48 31 26 51 51 50 56 53 53 54 53 50 46 40 34 35 43 45 50 50 44 51 49 43 33 33 32 32 52 48 52 60 67 69 66 66 67 69
52 52 49 51 50 53 49 36 24 40 43 57 57 55 50 54 53 52 47 40 47 43 37 32 30 45 50 45 44 47 40 36 29 29 38 54 44 53 66 71 71 72 68 69 68
50 45 44 47 50 50 38 25 30 40 50 49 52 47 46 52 51 50 46 43 48 47 35 35 37 49 51 52 48 42 36 47 38 43 34 45 53 62 67 69 68 70 70 64 67
42 41 41 50 49 43 32 28 36 46 50 48 42 48 41 46 48 48 45 45 46 51 50 42 32 48 51 50 49 46 51 36 35 29 29 40 45 47 58 61 65 65 64 67 66
41 35 44 51 47 36 26 30 39 47 48 45 44 44 45 43 45 45 41 41 48 48 49 47 37 40 45 40 38 41 38 40 40 38 34 32 39 52 57 63 63 63 66 67 65
38 29 44 51 32 34 29 36 43 42 48 46 47 46 43 44 42 43 43 43 48 48 41 43 38 32 40 50 51 47 41 41 34 36 41 38 38 59 61 66 65 66 69 68 70
34 34 45 44 27 29 35 37 40 40 42 44 44 48 48 43 38 44 44 48 48 45 40 41 36 30 36 44 51 43 45 45 42 41 35 33 39 59 64 65 67 66 66 67 67
33 27 34 34 34 33 32 34 36 46 44 46 46 48 45 42 45 41 44 47 48 46 46 44 38 34 30 35 37 35 41 46 42 35 38 40 48 53 55 59 63 64 64 65 67
33 31 35 21 30 32 35 34 34 37 46 48 43 44 42 37 40 39 44 44 47 46 44 41 31 37 39 42 41 41 39 40 42 41 37 44 49 49 53 55 58 62 63 63 63
32 32 37 33 35 33 35 35 34 37 39 39 41 44 43 38 41 39 43 41 41 42 42 41 32 35 35 44 40 37 41 41 43 44 44 46 45 51 56 55 59 59 60 61 61
38 40 35 34 35 31 32 35 38 43 44 46 40 38 37 41 43 44 44 44 44 42 37 38 34 31 28 38 36 32 40 41 44 47 46 40 47 51 51 57 57 57 59 60 60

GFSSW_sfc_temp_078.txt.gz
Temp
59 60 60 60 59 59 59 58 58 58 58 59 59 59 59 58 57 56 53 62 61 66 67 68 66 65 62 57 59 58 44 40 46 52 57 68 65 72 74 68 72 74 69 72 72
59 59 59 59 59 59 58 58 57 58 58 58 58 58 58 58 52 51 63 66 65 67 66 65 63 64 55 55 58 52 43 48 57 58 60 66 60 67 69 69 69 66 68 71 71
59 59 59 59 59 58 58 57 57 58 58 58 58 58 58 57 50 59 68 66 67 67 66 66 67 64 55 55 56 52 52 57 60 63 65 64 62 71 66 63 67 66 65 68 69
58 58 58 58 58 58 57 56 57 57 58 58 58 58 58 54 49 66 68 68 68 67 66 65 61 55 52 52 58 50 59 60 63 66 65 64 69 67 65 69 73 70 70 68 67
57 57 57 58 58 57 57 56 56 57 57 58 58 58 52 47 50 66 69 69 69 68 65 63 59 57 51 55 57 55 59 64 66 66 66 68 65 66 68 72 72 73 70 67 67
57 57 57 57 57 57 56 56 56 56 56 57 58 58 48 39 64 68 67 67 67 66 66 65 62 63 58 56 55 60 61 62 65 65 67 65 65 64 70 71 70 70 67 69 67
57 56 56 56 56 56 56 56 55 55 56 57 57 56 48 45 61 61 62 62 65 66 62 65 64 58 57 54 61 61 54 60 62 62 61 64 59 62 68 70 69 69 67 67 67
57 56 55 55 55 55 55 55 55 55 56 57 57 54 43 62 59 60 60 63 67 68 66 68 66 60 57 60 58 54 52 46 58 62 63 60 52 65 68 65 65 66 66 66 66
56 56 55 55 54 54 54 54 54 56 56 57 51 47 42 64 59 65 64 62 67 68 65 73 63 56 55 47 44 47 43 46 51 62 61 61 56 65 71 67 65 66 64 65 66
56 56 55 55 54 54 54 54 55 56 57 59 57 46 52 57 65 68 65 67 63 61 60 57 52 46 44 42 36 40 42 43 46 55 62 59 58 65 69 67 67 65 62 63 65
56 55 55 54 54 54 52 45 50 47 51 49 50 50 55 63 65 62 66 63 61 56 46 51 42 38 42 46 49 49 46 45 50 59 58 54 56 61 68 66 66 65 61 62 65
55 55 54 54 54 54 47 44 50 53 40 53 53 53 57 60 51 58 63 54 53 45 48 44 39 47 51 51 49 48 45 45 52 59 59 55 54 60 65 64 68 66 61 62 60
54 54 54 53 53 47 44 47 57 55 39 46 53 52 54 57 50 53 58 54 49 45 46 41 47 53 50 47 45 45 45 45 45 53 57 54 51 53 62 65 66 65 66 64 62
54 54 53 53 46 44 46 55 55 52 30 40 48 54 58 59 50 61 62 56 50 45 45 43 48 47 44 43 47 39 51 50 48 46 38 49 34 49 57 60 64 64 62 61 64
53 53 52 53 41 39 48 53 54 47 20 50 54 67 62 55 56 56 63 55 45 45 45 42 43 42 41 43 48 43 52 49 47 42 40 45 37 47 56 56 61 63 62 61 65
52 53 52 47 41 44 50 51 45 30 21 45 55 53 52 55 56 57 56 58 53 45 45 45 48 47 45 48 50 54 47 47 47 41 31 43 41 44 51 57 63 65 65 63 64
52 52 49 49 38 45 47 42 27 23 46 45 48 52 51 49 51 51 48 44 39 34 33 40 42 47 49 42 49 46 41 32 29 29 29 49 44 47 58 62 63 66 69 64 64
52 50 47 48 44 43 44 35 23 36 37 49 47 51 45 50 49 49 44 39 44 41 35 29 29 42 47 44 41 40 40 32 26 27 34 49 39 49 63 68 68 69 61 65 63
50 40 39 42 45 42 36 25 28 35 44 40 44 45 44 50 48 46 42 40 43 44 34 33 34 45 48 48 47 39 36 45 35 37 32 39 48 60 65 64 65 64 61 62 62
41 39 41 46 43 40 32 28 33 42 43 42 34 42 38 42 42 42 41 43 43 47 46 40 31 44 47 49 49 43 46 34 35 28 27 38 43 46 54 56 62 60 59 62 64
37 34 42 45 42 35 24 28 36 43 44 40 36 36 40 39 41 39 39 42 45 44 47 41 37 37 43 40 39 39 38 39 40 36 31 29 37 54 51 54 58 59 61 61 63
34 28 40 43 31 31 27 33 41 40 44 42 42 40 40 41 40 40 41 42 46 45 39 41 38 31 36 47 49 45 38 41 33 32 38 34 36 53 52 55 61 63 63 60 65
33 32 41 43 26 25 31 34 38 36 38 40 39 43 44 40 36 41 41 45 47 43 38 40 35 29 33 41 45 41 43 43 41 40 35 32 37 52 55 53 60 58 60 62 62
33 25 30 32 32 31 29 30 31 41 39 41 41 43 40 39 42 38 40 44 46 43 46 43 35 31 27 33 38 34 37 38 39 33 36 36 43 45 50 51 54 58 58 59 61
33 24 33 27 29 32 32 31 30 32 41 43 41 40 38 34 38 36 42 41 45 45 42 39 31 33 36 40 41 40 38 40 36 37 35 43 43 46 47 50 54 58 59 58 58
30 30 34 32 33 31 32 31 31 35 34 36 36 41 39 35 37 34 40 39 38 39 39 39 29 32 31 40 42 38 40 41 42 40 39 43 43 49 51 51 55 56 58 56 55
37 37 34 32 32 29 29 30 33 35 37 41 38 36 36 40 41 42 43 43 42 38 37 35 33 29 24 37 36 31 37 41 43 44 44 38 47 49 48 48 49 55 56 54 53

GFSSW_sfc_temp_081.txt.gz
Temp
59 59 59 59 59 58 58 58 57 57 58 58 58 58 59 58 57 54 50 60 57 65 66 64 62 61 59 55 56 53 41 36 44 49 55 62 61 64 67 65 69 69 66 69 71
59 59 59 59 58 58 58 57 57 57 57 58 58 58 58 57 51 49 60 65 64 66 62 62 60 59 53 52 54 50 40 44 52 58 56 59 53 62 64 65 65 66 67 66 69
58 58 58 58 58 58 57 57 56 57 57 57 58 58 57 56 48 56 67 65 66 66 63 63 63 60 52 52 53 51 49 52 56 60 59 58 56 62 60 60 65 63 66 64 65
57 57 58 58 58 57 57 56 56 57 57 57 57 58 58 51 46 59 68 67 67 65 63 61 60 56 52 51 55 48 54 59 57 59 57 58 61 59 60 63 70 69 68 64 64
57 57 57 57 57 57 56 56 56 56 56 57 57 57 53 44 47 63 68 67 65 64 61 61 57 54 50 51 53 52 55 58 60 60 59 61 59 59 63 67 71 68 66 64 65
57 57 56 57 57 56 56 56 56 56 56 56 57 57 50 37 61 64 63 64 65 61 60 61 59 60 55 53 51 55 56 57 59 59 60 59 61 57 64 68 68 65 64 65 65
57 56 56 56 56 56 56 55 55 55 56 56 57 55 47 43 57 58 59 60 63 64 60 64 63 56 55 52 58 57 51 54 56 54 55 60 55 55 64 65 66 65 64 66 66
56 56 56 55 55 55 55 55 55 55 56 56 57 53 43 59 56 57 56 58 62 63 63 65 64 58 54 57 55 50 49 42 52 57 58 57 49 61 64 62 61 63 61 64 64
56 56 55 55 54 54 54 54 54 56 57 56 51 48 42 62 56 62 61 59 63 64 63 70 61 54 51 45 41 42 39 42 47 58 56 54 52 59 61 63 61 62 63 60 63
55 56 55 54 54 54 53 54 54 55 57 57 55 45 51 55 62 65 61 63 60 59 57 56 49 44 41 39 32 36 38 38 40 52 53 50 50 56 60 61 60 61 63 60 59
55 55 55 54 54 53 51 46 46 45 47 45 48 48 53 61 65 61 64 61 59 54 46 49 42 37 41 43 45 44 43 41 45 52 51 51 51 56 60 58 57 63 63 61 60
54 54 54 54 54 53 46 43 46 47 35 48 50 50 55 58 50 56 63 54 51 44 47 43 37 46 48 47 45 44 40 40 47 53 52 47 48 55 59 60 61 60 63 61 56
54 54 53 53 53 45 41 45 52 51 36 45 52 51 52 54 47 50 57 53 48 44 44 39 45 51 47 45 43 43 40 41 42 48 51 48 47 52 59 59 61 63 65 63 59
53 53 52 52 45 40 40 49 52 52 30 38 45 49 55 53 45 59 60 54 47 44 44 42 47 46 43 42 44 37 47 47 45 41 34 46 33 46 52 55 59 63 59 57 60
53 52 52 52 41 37 45 49 51 44 18 47 50 61 56 50 53 50 59 53 44 44 44 40 42 41 40 42 46 40 47 46 44 38 38 39 36 40 51 51 56 61 62 57 61
52 52 52 45 39 41 44 46 44 27 19 40 52 49 47 51 52 53 52 55 51 44 43 42 46 45 44 47 47 48 45 43 41 39 30 38 38 37 45 52 60 64 63 61 60
52 52 48 48 37 42 43 38 25 20 42 39 42 46 46 45 48 49 45 42 37 33 32 38 40 43 47 39 45 43 38 26 24 26 27 43 38 43 52 58 61 63 65 60 62
51 50 46 47 42 42 39 31 20 33 34 45 43 43 40 47 46 46 42 37 40 38 32 29 28 40 45 42 38 38 37 29 24 24 30 44 35 44 58 64 66 65 65 62 62
49 39 38 39 42 41 32 23 26 32 39 37 41 37 38 42 43 43 40 41 41 42 35 31 33 43 45 46 45 40 35 42 34 36 32 35 43 54 55 61 59 59 61 58 61
39 39 36 41 42 37 27 26 30 40 40 38 32 34 29 34 38 39 39 42 41 45 45 39 31 42 45 46 47 42 45 34 34 26 27 34 38 39 44 48 54 56 58 58 61
35 29 38 41 41 34 23 27 33 41 41 36 34 31 32 31 38 38 38 40 44 43 46 41 37 36 42 40 37 40 37 36 38 35 30 29 35 48 45 50 50 54 56 56 60
32 20 40 41 27 28 26 32 38 37 40 37 39 39 32 32 34 39 37 41 45 45 38 39 38 31 33 43 46 42 40 40 32 32 35 33 34 50 48 51 54 54 56 55 60
30 33 38 38 23 26 30 32 35 34 35 36 37 40 37 31 28 39 39 45 45 43 37 39 36 26 31 37 41 40 41 40 39 37 33 29 34 52 52 51 53 53 55 57 57
33 24 27 31 27 24 26 30 28 38 37 38 37 39 37 31 36 38 41 43 44 42 46 43 34 31 26 29 35 32 38 40 35 32 34 35 40 44 48 48 52 53 54 53 54
33 24 28 16 25 28 27 26 28 29 38 39 36 36 35 29 32 36 40 40 43 45 40 37 29 32 34 36 37 36 37 39 37 36 32 38 38 47 46 47 50 53 54 50 49
27 28 30 25 33 29 29 29 29 32 32 33 33 38 38 32 37 34 38 37 36 38 37 37 29 31 30 36 38 35 39 41 39 39 40 40 38 48 50 50 49 50 51 48 47
36 37 34 29 30 28 28 29 29 31 35 39 37 34 33 38 40 41 40 40 39 37 35 36 32 28 22 33 32 28 36 39 41 43 41 35 43 48 48 48 48 49 47 45 45

GFSSW_sfc_temp_084.txt.gz
Temp
59 59 59 59 58 58 58 58 57 57 57 58 58 58 58 58 57 52 48 59 56 64 64 62 61 59 58 54 54 50 41 34 41 45 52 58 57 59 62 62 62 66 64 68 67
58 58 58 58 58 57 57 57 57 57 57 57 57 57 57 57 50 47 59 64 63 64 62 60 57 58 51 49 51 48 38 42 49 53 52 55 50 56 58 58 60 62 66 65 65
58 58 58 58 58 57 57 57 56 57 57 57 57 57 57 56 46 55 66 64 65 65 61 62 61 58 50 49 50 48 45 49 52 55 55 55 53 58 55 54 61 61 63 62 62
57 57 57 57 57 57 57 56 56 57 57 57 57 57 57 49 44 56 67 67 66 63 60 59 57 51 48 47 52 45 51 55 54 59 55 55 56 57 56 59 66 64 65 63 61
56 57 57 57 57 57 56 56 56 56 56 57 57 57 50 42 45 59 65 64 63 62 59 59 55 53 49 51 50 48 51 55 57 57 56 57 55 57 57 62 65 65 64 64 62
56 56 56 56 56 56 56 55 55 55 56 56 57 56 45 36 58 59 58 59 62 59 58 59 58 58 52 52 50 52 51 53 55 56 56 56 57 53 57 62 62 62 62 63 62
56 56 56 56 56 55 55 55 55 55 55 56 56 54 45 43 57 57 57 55 59 60 57 61 61 55 53 50 55 54 47 50 52 53 53 56 52 52 60 61 60 61 62 62 62
56 55 55 55 55 55 55 54 54 55 56 57 56 51 41 60 58 55 54 55 58 59 60 63 62 56 52 55 53 47 45 39 49 52 55 54 47 56 60 59 59 58 59 60 61
55 55 55 54 54 54 54 54 55 56 56 56 50 46 40 62 55 61 59 57 59 58 59 68 58 52 50 43 39 39 35 38 45 54 53 50 48 53 58 58 57 57 58 59 59
55 54 54 54 54 53 53 54 54 55 55 55 55 43 50 53 61 63 61 61 59 58 55 54 48 43 40 39 31 34 36 32 36 48 48 46 47 53 57 57 57 56 57 57 57
54 54 54 54 54 53 50 43 42 41 44 41 43 45 49 58 63 60 63 60 58 54 45 49 41 34 39 42 43 42 39 37 39 48 46 47 48 53 55 53 53 54 56 57 58
54 54 53 53 53 52 43 41 43 44 33 44 45 45 52 56 48 55 61 52 51 44 48 43 37 45 47 45 43 41 37 36 42 48 47 44 45 52 53 55 57 56 57 57 56
53 53 53 52 52 44 37 42 47 49 32 41 48 48 49 51 44 48 55 52 47 44 44 40 44 49 46 43 40 39 37 37 39 45 46 43 42 47 55 57 59 58 59 59 60
52 52 52 52 44 39 39 46 47 45 30 35 43 46 52 52 42 55 58 53 47 43 44 41 46 46 43 41 42 34 45 44 41 38 30 42 29 44 48 51 54 56 56 59 60
52 52 52 52 39 36 44 45 47 41 16 42 46 58 53 45 49 49 57 52 44 43 44 39 40 40 39 42 45 39 45 42 41 36 36 36 31 38 47 48 51 54 56 59 60
52 52 52 44 38 40 42 43 41 28 18 36 48 47 45 47 48 50 48 53 50 43 42 42 45 44 44 45 46 46 42 41 40 41 27 35 35 33 41 46 52 56 59 62 61
51 51 48 46 36 41 41 37 24 18 38 35 37 42 43 42 45 46 43 40 37 32 33 38 39 43 46 40 43 41 35 25 24 28 25 39 34 38 49 54 56 57 59 61 63
50 49 45 44 40 41 37 30 18 31 30 41 39 41 38 38 41 45 40 35 39 38 31 29 29 39 44 41 37 36 35 29 22 24 28 39 31 39 50 54 55 56 58 59 58
49 37 36 38 40 39 30 21 24 28 35 33 36 33 34 37 34 39 38 37 40 41 33 31 31 41 43 44 43 39 33 40 33 34 30 33 39 48 51 50 52 53 55 55 57
36 34 34 40 40 35 26 24 28 36 37 36 28 34 28 32 31 32 36 41 39 43 42 37 30 40 42 44 43 41 43 34 33 22 23 31 33 38 43 45 49 50 52 55 57
34 28 37 39 39 34 20 25 30 38 38 33 31 29 32 30 32 30 37 39 42 40 43 40 37 35 41 37 35 38 36 37 36 34 27 24 31 47 46 47 49 50 53 53 54
31 22 37 39 27 27 19 30 37 34 38 35 35 34 32 32 31 30 32 37 42 42 36 40 37 29 34 41 43 41 38 40 32 29 33 29 30 49 50 49 54 53 53 53 56
29 28 36 36 12 18 30 31 34 32 33 33 33 37 36 32 27 32 33 42 43 40 39 40 34 27 31 36 39 38 40 39 36 36 32 30 32 50 52 53 53 53 52 51 53
27 23 26 33 25 23 25 27 28 36 33 36 34 36 34 32 34 30 32 39 44 43 45 43 33 31 27 29 33 28 36 39 37 28 29 33 35 45 47 48 51 51 51 49 51
29 22 27 19 23 24 29 27 26 26 35 37 33 32 32 28 31 31 34 37 42 44 39 37 30 31 32 35 35 34 34 36 34 36 31 35 36 43 46 48 48 50 49 47 46
26 29 31 23 28 26 28 26 27 29 30 30 30 34 36 30 34 31 33 38 37 38 36 37 28 30 29 34 35 32 36 36 36 37 37 38 37 48 51 50 48 47 46 44 43
37 38 32 28 27 22 25 27 28 30 34 35 36 33 32 36 40 41 41 40 39 35 33 34 29 26 20 30 30 27 33 36 37 41 40 35 42 48 48 48 47 44 43 41 41

GFSSW_sfc_temp_087.txt.gz
Temp
59 59 59 59 58 58 58 58 57 57 57 57 58 58 58 58 57 54 51 63 59 62 64 66 67 66 66 63 63 61 54 49 52 53 60 64 64 70 72 71 71 74 74 76 75
58 58 58 58 58 58 57 57 57 57 57 57 57 57 57 57 52 50 60 64 62 64 64 64 61 63 61 60 61 59 51 52 58 62 62 64 66 68 67 67 69 71 75 75 72
58 58 58 58 58 57 57 56 56 57 57 57 57 57 57 57 50 59 66 65 65 65 66 67 65 63 58 58 57 57 53 57 59 62 63 64 62 68 65 62 67 68 72 74 73
57 57 57 57 57 57 57 56 56 56 57 57 57 57 57 53 50 64 65 65 66 66 65 63 62 58 55 53 58 53 55 60 62 64 63 61 68 63 64 66 72 73 74 72 72
56 56 57 57 57 57 56 56 56 56 56 56 57 57 53 46 50 62 63 63 66 64 63 61 59 57 53 55 56 53 56 60 61 62 62 64 61 61 62 69 73 73 69 70 72
56 56 56 56 56 56 56 55 55 55 55 56 57 57 48 40 63 62 60 61 63 62 62 62 61 62 58 57 56 58 57 58 60 61 62 59 61 63 66 69 69 69 70 71 73
56 55 55 55 55 55 55 55 55 55 56 57 57 55 45 45 62 63 60 59 62 63 60 63 65 61 59 55 60 58 53 56 57 60 59 61 57 57 67 69 66 69 71 71 74
55 55 55 54 54 54 54 54 54 55 57 57 57 53 43 60 62 59 59 57 60 60 61 65 66 62 59 61 57 53 52 47 56 57 59 60 51 64 70 66 66 67 69 70 72
55 55 54 54 53 53 53 53 54 56 56 56 51 47 42 62 56 63 60 57 61 59 60 67 63 57 56 51 47 46 43 44 50 58 58 57 53 60 65 65 64 67 69 69 70
54 54 54 53 53 53 52 53 54 56 56 56 55 44 52 51 60 63 63 61 59 57 56 56 55 50 48 48 37 41 41 44 46 53 55 53 53 60 62 62 63 66 68 68 69
54 54 53 53 53 53 50 47 44 44 45 39 43 43 48 57 62 60 63 60 59 57 48 52 46 42 46 50 50 46 44 42 47 53 50 50 51 56 60 62 61 63 66 67 69
53 53 53 53 53 52 46 42 42 42 33 44 44 46 50 53 45 54 62 52 53 46 50 46 42 49 50 49 47 46 43 43 47 51 50 49 49 56 59 60 62 63 65 67 69
53 53 52 52 52 45 42 43 49 46 33 39 47 47 48 50 42 46 55 54 50 45 46 43 47 51 48 46 43 44 42 42 43 48 51 48 48 53 58 61 63 64 66 68 69
52 52 52 51 45 42 43 47 47 46 32 37 44 49 53 52 43 55 58 55 50 45 46 46 51 48 46 44 46 39 48 47 44 42 38 49 37 51 55 57 60 62 64 65 68
52 52 51 50 42 40 46 46 47 43 20 43 47 60 55 48 51 51 58 53 46 46 47 43 44 43 43 45 48 44 48 46 45 42 40 41 37 45 54 55 59 62 64 66 68
51 51 51 45 41 44 44 45 44 31 20 36 47 43 44 49 49 52 50 55 54 47 47 47 50 48 48 48 50 50 46 45 44 42 32 40 40 44 50 52 54 59 62 65 68
51 51 48 47 39 44 44 42 29 21 39 34 35 40 41 39 43 45 44 42 40 35 36 41 43 48 49 44 47 46 41 33 30 29 31 43 39 45 53 53 54 55 58 62 65
50 49 44 45 43 43 40 34 21 31 32 39 37 38 37 38 40 39 36 39 44 42 39 35 31 42 48 46 42 41 40 35 26 28 33 43 37 47 53 56 58 59 59 61 62
48 39 39 42 42 41 33 21 26 30 33 32 35 33 34 37 37 36 35 38 44 44 37 35 34 44 46 48 48 40 36 44 34 37 33 40 46 51 55 56 58 58 59 57 58
38 36 37 41 42 39 28 25 30 36 36 35 27 34 26 32 32 33 32 42 44 46 48 41 33 43 45 48 47 45 47 33 34 24 24 37 40 44 48 50 54 55 56 56 57
35 32 40 42 42 35 22 26 32 38 37 32 30 28 30 29 33 30 32 39 42 44 47 45 41 37 43 41 39 40 37 37 37 34 30 30 39 51 49 53 52 54 55 53 54
33 24 40 41 28 29 25 30 35 35 38 35 35 33 30 32 30 30 29 34 37 40 41 43 40 34 37 45 47 45 41 41 31 30 33 33 37 53 53 55 55 53 53 52 53
30 30 39 38 20 23 30 31 34 32 33 33 33 36 37 31 25 33 33 41 36 36 41 44 37 32 32 39 43 40 38 37 36 35 32 29 38 54 55 54 56 51 51 51 50
28 21 30 35 29 27 25 27 28 37 34 35 34 36 33 30 35 30 31 36 36 41 44 45 37 35 32 33 37 33 38 41 38 32 34 35 38 46 50 50 53 50 50 49 47
29 24 29 21 27 28 26 26 26 26 35 36 32 32 32 28 31 30 33 33 37 41 42 42 34 36 37 38 38 37 37 39 36 38 32 38 39 45 48 50 51 48 48 45 43
29 29 32 30 28 23 27 25 27 29 29 30 28 33 34 29 33 30 33 34 35 40 39 41 32 34 34 37 37 35 39 40 39 39 39 40 39 50 53 54 47 45 44 41 40
37 38 32 29 29 25 25 27 28 30 34 37 32 31 32 35 39 40 41 39 39 38 37 36 34 31 28 34 35 30 36 39 41 43 42 35 44 49 47 42 42 41 41 38 37

GFSSW_sfc_temp_090.txt.gz
Temp
59 59 59 59 58 58 58 58 57 57 57 58 58 58 58 58 58 68 64 69 69 64 64 74 75 76 78 75 76 77 64 62 66 64 68 76 72 81 83 80 81 82 82 84 86
58 59 59 58 58 58 57 57 57 57 57 57 57 58 58 57 61 64 70 65 64 64 72 72 71 73 71 71 72 69 64 65 74 72 72 76 75 78 74 76 77 79 85 86 86
58 58 58 58 58 58 57 57 56 57 57 57 57 57 57 60 61 70 65 65 64 66 74 76 75 72 68 72 69 68 63 71 70 72 75 74 75 78 73 70 76 75 80 84 84
57 57 57 58 58 57 57 56 56 57 57 57 57 57 57 63 58 73 65 65 66 73 73 72 70 64 63 62 70 61 68 70 72 73 72 69 75 72 74 73 80 82 83 83 82
56 56 57 57 57 56 56 56 56 56 56 57 57 57 60 60 64 74 65 69 75 72 70 69 67 66 61 65 67 62 67 70 71 71 71 72 70 71 73 79 81 81 81 80 81
56 56 56 56 56 56 55 55 55 55 56 56 57 57 57 53 73 72 70 71 73 72 68 70 68 71 66 65 63 68 66 68 69 68 69 66 68 71 73 78 77 79 80 81 81
55 55 55 55 55 55 55 55 54 55 55 57 57 60 54 60 72 74 71 69 71 72 68 70 71 66 67 62 68 64 59 64 67 68 66 70 64 67 77 79 77 78 80 81 83
55 55 54 54 54 54 54 54 54 55 57 57 57 59 54 69 74 69 71 69 70 71 69 71 69 66 65 69 64 59 60 53 65 66 67 67 58 73 76 75 74 77 78 79 82
55 54 54 54 53 53 53 54 54 56 57 57 59 56 55 67 64 71 71 65 68 67 68 71 67 62 63 56 54 57 50 55 58 64 64 63 62 70 73 72 72 75 78 79 81
54 54 54 53 53 53 52 54 56 58 61 63 63 52 61 60 67 69 74 67 64 62 59 60 61 56 54 54 44 50 50 52 53 62 62 61 61 68 72 72 72 74 77 78 79
54 54 53 53 53 53 58 65 59 57 55 51 54 52 55 65 68 64 70 67 66 60 51 56 51 49 54 53 54 54 51 53 58 61 57 57 60 65 70 71 71 73 75 77 78
53 53 53 53 53 52 60 52 47 49 39 53 54 53 57 59 49 60 66 57 59 52 55 50 47 57 57 56 52 52 49 50 57 59 57 57 58 65 68 69 71 73 75 77 79
53 53 52 52 52 56 54 50 57 54 39 51 54 54 56 56 51 56 60 59 53 53 53 48 54 58 54 49 46 49 48 50 50 56 58 56 55 64 66 70 72 74 76 77 77
52 52 52 51 52 54 55 58 58 53 41 47 51 56 59 58 51 66 64 59 55 50 54 51 58 53 52 50 51 45 55 52 50 49 46 55 47 60 64 66 69 70 72 74 76
52 52 51 50 53 54 54 58 57 50 29 48 52 64 61 54 57 59 65 58 50 53 54 49 50 50 48 51 54 50 54 52 51 50 49 52 48 58 63 62 65 68 70 71 75
52 51 51 54 56 56 57 56 54 39 29 43 51 48 49 54 54 59 57 60 59 52 55 55 57 54 55 57 55 57 51 51 52 50 41 51 50 58 61 59 62 67 69 70 72
51 51 53 56 50 55 55 53 38 31 46 40 40 46 47 48 49 49 48 48 44 39 42 51 50 54 55 49 53 53 47 38 36 36 39 51 48 56 61 61 63 64 68 71 72
50 48 49 55 55 53 53 44 28 38 38 44 42 44 41 45 45 46 43 43 50 49 47 40 37 48 53 52 47 48 49 42 33 37 44 50 43 55 61 64 67 68 69 71 71
49 55 53 52 53 54 46 31 35 36 38 36 39 37 40 42 42 43 43 40 47 52 43 42 42 53 53 56 55 46 41 52 41 45 39 49 54 58 62 63 65 66 67 67 69
53 52 49 52 53 51 39 30 35 41 41 39 31 37 31 37 36 38 39 37 39 48 54 48 39 48 50 55 53 51 55 38 42 30 31 45 48 54 52 57 62 62 63 64 66
50 45 49 53 52 46 31 34 37 43 42 36 34 33 35 33 36 36 37 41 33 39 45 44 46 42 48 46 45 45 44 44 44 42 34 38 47 56 55 58 59 61 62 62 60
47 37 50 51 39 39 36 36 39 40 43 40 39 38 35 36 34 34 33 39 42 37 33 50 46 39 42 49 55 52 48 47 39 34 41 36 44 61 61 62 62 62 61 61 55
42 45 51 48 31 36 38 37 39 38 39 38 37 41 42 36 29 35 37 44 41 34 35 50 45 36 37 44 49 46 44 45 43 43 37 34 46 60 63 62 63 61 59 57 51
40 33 44 46 38 31 31 34 34 42 39 40 38 41 38 36 40 32 35 37 36 34 37 44 45 43 39 40 45 39 44 47 44 37 42 43 47 53 56 57 60 59 57 54 48
40 35 37 33 37 34 32 31 32 32 39 41 37 36 34 30 35 34 36 33 35 39 45 48 40 44 45 46 46 45 44 46 43 44 38 46 46 51 54 55 57 56 53 51 44
34 41 37 36 35 29 32 31 31 33 31 34 32 37 36 32 37 30 33 34 34 39 37 47 38 41 39 43 44 40 44 46 46 46 46 47 46 57 57 57 49 45 46 44 42
46 44 41 36 36 33 34 32 31 31 37 37 32 32 34 39 44 44 44 43 41 36 36 41 40 38 32 41 40 36 42 44 46 48 47 41 47 52 47 43 42 42 40 40 38

GFSSW_sfc_temp_093.txt.gz
Temp
59 59 59 59 58 58 58 58 57 57 58 58 58 58 58 58 58 71 70 74 73 66 64 81 81 81 81 78 82 83 67 65 69 71 75 83 78 86 89 85 88 88 87 90 90
58 58 59 59 58 58 58 57 57 57 57 58 58 58 58 58 62 69 70 66 65 65 74 76 75 79 75 76 78 73 66 67 78 80 78 79 80 82 80 80 81 84 88 91 92
58 58 58 58 58 58 57 57 56 57 57 57 58 58 58 60 66 75 65 66 65 67 77 81 80 79 72 76 75 73 65 73 78 81 81 79 79 84 80 76 81 81 83 87 89
57 57 57 58 58 57 57 56 56 57 57 57 57 58 58 64 60 78 66 67 66 76 78 76 75 70 68 68 76 68 73 74 76 79 78 74 79 77 78 79 85 86 87 87 86
56 56 56 57 57 56 56 56 56 56 56 56 57 58 61 65 70 74 67 70 78 78 76 74 71 71 66 70 73 69 71 74 76 76 75 77 74 74 76 83 87 86 85 84 85
56 56 56 56 56 56 56 55 55 55 56 56 58 58 61 58 80 80 77 77 78 78 76 76 74 76 70 70 69 73 72 72 72 73 74 69 70 74 76 82 82 83 83 84 84
56 55 55 55 55 55 55 55 55 55 55 57 58 63 62 65 81 81 78 76 79 77 74 78 78 72 71 66 73 71 64 68 69 70 69 73 65 66 77 80 79 81 82 83 85
55 55 55 54 54 54 54 54 54 55 56 58 58 67 59 78 80 76 79 76 79 78 76 78 78 72 69 71 68 62 63 57 68 71 72 69 57 73 82 80 78 81 82 83 86
55 54 54 54 54 54 54 54 55 56 58 58 62 63 60 68 70 77 78 71 74 75 75 76 72 66 67 59 56 60 50 54 62 72 67 68 62 75 80 77 76 78 81 83 85
54 54 54 54 54 53 53 53 58 57 61 69 69 57 66 66 72 73 77 75 69 70 66 65 65 60 61 58 47 52 52 57 56 66 67 61 63 72 76 75 74 77 79 81 83
54 54 54 54 53 53 57 70 64 60 65 60 62 61 63 71 73 69 74 71 70 65 56 62 55 52 57 60 60 58 56 55 60 69 63 61 62 67 72 74 72 76 77 79 81
53 53 53 53 53 53 64 59 54 55 48 61 62 62 65 66 57 67 72 61 61 55 61 58 50 60 63 62 58 54 53 52 59 65 63 61 60 67 71 73 74 75 77 80 82
53 52 52 52 53 58 61 57 64 61 49 58 63 61 62 63 58 62 66 63 57 55 57 54 58 63 59 58 53 53 52 52 54 59 64 59 56 62 71 75 76 78 79 80 80
52 52 52 51 52 62 60 63 65 60 45 52 56 61 63 63 56 69 72 64 59 53 56 56 63 59 57 55 55 46 58 55 53 52 44 61 48 63 69 70 72 74 74 76 78
52 52 52 52 59 60 60 64 63 55 34 55 58 69 65 58 61 63 71 64 53 54 56 50 55 55 52 55 58 50 58 56 55 50 49 54 51 58 68 65 69 71 73 75 77
52 52 52 58 61 61 64 62 58 42 35 48 56 53 53 57 59 64 63 67 63 55 56 56 64 61 58 60 59 61 56 54 53 50 41 49 51 56 62 64 64 69 72 75 77
51 51 55 61 55 62 61 57 43 37 53 46 45 50 49 49 53 56 54 53 50 44 43 53 54 53 61 54 59 56 49 38 37 39 37 58 53 56 66 66 66 68 71 74 75
51 50 51 60 62 60 57 48 33 45 45 52 47 46 43 49 50 50 49 47 55 52 46 40 38 52 58 55 51 50 50 41 33 36 44 57 46 57 69 69 71 71 72 73 73
50 58 59 58 59 59 51 36 40 42 46 42 43 40 43 46 38 45 46 46 50 44 39 42 42 58 59 60 58 49 45 55 45 46 42 49 57 63 67 63 65 68 70 70 70
58 57 54 58 59 56 46 35 41 46 45 44 35 40 35 40 40 41 42 46 41 39 41 43 36 50 57 59 59 54 57 41 45 33 34 47 52 49 54 58 64 66 66 67 66
54 51 54 58 57 53 36 41 42 48 47 40 38 37 38 37 40 39 40 47 37 37 40 42 44 44 54 49 49 49 45 48 49 47 38 38 45 58 59 62 62 65 66 65 62
54 42 57 57 45 48 41 41 43 45 49 45 44 41 38 39 37 37 37 42 43 42 34 43 40 37 46 56 60 55 50 49 40 38 45 42 43 62 63 65 65 65 65 65 61
52 52 57 54 36 41 43 42 44 43 44 43 40 43 43 39 32 39 41 48 46 37 36 36 36 33 33 44 52 49 52 54 48 47 40 38 45 64 65 63 65 65 63 63 58
47 36 49 53 44 38 36 38 39 47 44 45 43 45 41 37 43 38 40 44 41 35 39 37 34 38 34 43 47 41 45 49 47 40 43 45 50 57 59 60 61 62 59 60 55
47 40 45 38 40 39 37 35 36 35 43 45 40 40 36 32 37 38 39 35 39 38 37 36 40 45 46 50 51 48 47 49 45 47 42 48 49 54 56 56 58 55 56 53 50
38 46 46 41 40 33 36 34 35 36 36 37 35 39 39 35 39 33 37 38 34 39 35 40 39 47 44 50 50 45 48 49 49 49 50 50 50 56 58 56 50 48 47 47 43
54 52 49 40 42 39 39 36 35 33 40 41 37 34 37 41 45 46 47 45 42 36 35 39 45 44 35 46 45 38 45 47 49 51 47 41 47 54 51 44 36 37 40 38 40

GFSSW_sfc_temp_099.txt.gz
Temp
59 59 59 59 59 59 58 58 58 57 57 58 58 58 58 58 57 57 54 62 64 67 66 69 69 68 66 61 61 63 53 50 52 56 61 72 70 78 77 74 75 78 77 77 80
59 59 59 59 58 58 58 58 57 57 57 57 57 58 58 57 53 53 63 68 67 66 66 64 62 65 58 58 58 53 49 52 60 63 63 70 67 68 70 71 72 74 79 79 79
58 58 58 58 58 58 57 57 57 57 57 57 57 58 57 57 52 64 67 66 67 65 66 67 68 66 58 59 58 55 52 59 63 67 69 65 66 70 67 64 71 69 73 77 75
57 57 57 57 57 57 57 56 56 57 57 57 57 58 58 54 52 62 67 67 67 66 66 65 64 57 53 53 60 54 61 62 64 68 68 66 69 67 68 67 72 73 74 75 73
57 56 57 57 57 57 56 56 56 56 56 57 57 57 54 50 54 66 68 68 66 67 64 64 61 59 54 57 59 58 61 65 68 68 68 69 66 66 67 69 74 75 75 71 71
56 56 56 56 56 56 56 56 55 55 56 56 57 57 50 45 71 71 69 68 69 65 64 66 63 65 61 60 57 61 63 63 66 66 66 64 64 62 67 70 72 74 72 72 72
56 56 55 55 55 55 55 55 55 55 56 56 57 57 51 52 70 67 73 68 70 68 63 67 66 60 60 57 64 63 55 60 62 60 60 63 58 59 64 68 69 71 73 73 75
56 55 55 55 54 54 54 54 54 55 56 57 58 55 45 70 67 70 70 70 73 71 69 68 67 60 55 60 59 54 52 45 57 61 64 57 51 63 66 66 66 68 70 73 75
55 55 55 54 54 54 54 54 54 55 56 57 52 50 49 70 67 71 70 68 70 71 67 75 64 55 54 46 43 46 40 44 50 60 60 56 53 62 65 68 66 68 68 71 73
55 55 54 54 54 53 53 53 55 56 57 61 60 48 56 61 68 69 69 70 64 62 60 58 53 47 43 40 34 36 40 44 45 55 57 54 54 61 62 64 62 62 65 66 68
54 54 54 54 54 53 51 48 51 47 53 52 53 55 61 68 71 65 70 66 62 55 44 51 44 40 42 46 48 47 45 44 50 57 54 53 50 57 62 63 63 62 60 63 67
53 53 53 53 53 53 51 49 52 50 40 55 56 57 62 66 57 62 68 57 54 45 50 44 40 50 53 52 49 48 44 43 50 56 55 51 49 52 56 58 62 61 63 64 64
53 53 53 53 53 50 51 54 59 56 37 50 59 60 62 64 56 57 62 58 52 48 48 42 48 56 53 50 48 48 45 45 46 52 51 48 46 49 59 62 66 69 68 70 68
52 52 52 52 48 52 52 59 58 54 30 48 55 61 63 62 53 65 65 57 53 47 49 46 53 52 49 47 50 43 53 51 49 47 36 46 34 47 54 59 63 66 70 69 66
52 52 52 52 44 49 54 57 57 50 25 53 55 68 64 56 56 57 65 57 47 47 48 43 46 46 44 47 52 46 55 50 50 47 39 42 35 44 54 54 59 65 65 68 66
52 52 52 51 45 53 55 54 49 34 26 48 56 53 51 53 52 56 56 59 57 48 49 47 55 48 47 50 52 54 51 47 44 42 31 41 39 40 48 54 60 61 61 62 62
52 52 50 53 45 53 51 46 32 26 53 43 44 47 45 44 47 50 47 43 38 32 33 41 43 49 52 45 49 47 43 27 26 27 27 45 40 43 55 60 57 55 57 57 57
51 51 49 54 51 51 47 37 25 43 40 46 44 44 40 45 45 45 42 37 45 40 32 28 26 41 49 43 39 42 42 28 22 24 30 45 36 45 59 62 52 58 56 55 54
51 46 46 49 52 49 40 27 32 39 43 40 41 36 37 41 40 40 38 37 43 41 29 28 30 44 45 48 48 38 34 42 31 38 29 36 44 52 51 52 50 54 52 50 51
43 44 45 52 51 45 34 33 40 46 45 43 32 37 30 34 34 34 35 42 40 43 42 35 25 41 47 46 47 44 47 32 33 25 24 34 36 33 38 41 46 49 48 48 48
40 38 46 52 49 39 26 35 43 48 47 40 36 34 35 33 35 32 34 40 40 42 42 37 32 33 41 39 37 37 35 37 38 37 28 27 31 36 38 46 47 47 47 46 45
40 32 48 50 34 36 29 42 44 45 48 44 42 39 35 35 33 32 32 38 47 40 33 36 31 25 33 46 46 45 39 40 28 32 37 33 30 43 44 47 48 49 49 47 45
37 38 48 47 27 28 41 43 46 44 43 41 39 41 40 34 28 34 35 44 41 37 34 35 30 20 28 39 44 40 44 45 42 37 34 29 30 43 46 45 46 44 44 43 42
37 30 38 40 37 34 33 37 37 45 42 42 39 41 37 33 37 31 33 40 41 38 44 36 31 26 22 33 37 32 38 46 42 32 33 32 32 38 39 38 38 39 39 39 39
37 34 39 29 30 34 34 35 34 34 41 41 37 37 34 28 30 30 34 33 39 42 40 34 28 31 32 35 36 35 36 38 36 34 32 31 30 35 34 34 34 37 37 36 35
33 35 38 33 37 31 34 32 34 36 34 34 32 35 35 29 33 28 32 33 32 37 35 36 29 33 31 36 37 34 38 36 34 35 35 36 31 38 37 35 33 32 33 32 32
43 44 38 37 35 29 30 35 34 33 37 41 35 34 34 36 37 37 39 39 37 34 32 34 32 31 28 36 36 30 34 35 33 34 35 27 31 37 31 29 28 29 30 29 30

GFSSW_sfc_temp_102.txt.gz
Temp
59 59 59 59 59 59 58 58 58 57 58 58 58 58 58 58 57 55 51 61 59 65 66 67 65 63 60 56 60 59 43 42 44 50 54 65 64 71 70 67 70 74 73 76 77
59 59 59 59 58 58 58 58 57 57 57 57 58 58 58 57 51 50 62 65 65 67 63 61 59 58 54 52 56 52 43 47 56 57 58 63 62 64 65 65 67 68 74 74 76
59 59 58 58 58 58 57 57 57 57 57 57 57 58 57 56 48 60 67 65 67 66 62 63 63 60 52 52 53 49 50 56 58 60 61 59 60 65 64 60 65 65 67 73 72
58 58 58 58 58 58 57 56 56 57 57 57 57 58 57 52 49 61 67 67 67 64 62 60 58 52 49 49 54 49 57 58 58 62 60 60 65 63 63 64 71 68 70 70 71
57 57 57 57 57 57 56 56 56 56 56 57 57 58 52 48 51 66 67 67 65 65 61 59 56 53 49 52 54 52 56 59 61 62 62 64 61 62 65 68 70 70 70 68 67
57 56 56 56 56 56 56 56 56 55 56 56 57 57 47 43 67 68 66 64 67 63 61 60 59 59 55 54 52 58 57 58 60 59 61 60 61 58 65 67 66 68 67 67 68
57 56 56 56 56 56 55 55 55 55 56 56 57 55 48 49 63 62 66 65 65 65 61 63 62 55 55 52 58 58 50 54 57 55 56 56 55 56 61 65 65 65 65 69 67
57 56 55 55 55 55 54 54 54 55 56 56 57 52 43 64 59 62 64 66 68 67 65 66 64 57 53 56 54 49 48 39 50 54 56 56 48 60 61 60 60 63 68 70 70
56 55 55 54 54 54 54 54 54 55 56 57 49 47 45 66 62 69 66 64 65 65 62 72 62 54 51 43 38 40 38 40 46 53 53 52 49 59 61 62 63 65 66 68 69
56 55 54 54 54 53 53 53 54 54 56 59 57 46 54 59 66 67 66 66 61 59 58 55 50 44 40 37 30 31 35 36 39 50 51 49 49 57 62 61 60 61 63 64 66
55 54 54 54 54 53 49 46 47 45 49 46 48 49 59 63 67 64 66 62 59 54 43 47 39 34 39 42 45 43 41 38 44 51 49 47 49 53 59 54 55 60 57 57 60
54 53 53 53 53 53 47 47 50 48 39 52 52 53 59 61 54 59 63 54 52 44 47 42 36 44 48 47 45 43 39 39 45 50 49 47 47 54 53 55 56 56 55 56 58
53 53 53 53 53 49 47 50 56 53 36 48 55 55 57 60 53 54 58 54 49 45 45 39 44 52 49 45 43 43 40 41 41 48 50 46 44 49 55 55 59 61 62 62 62
53 52 52 52 48 47 48 55 55 52 33 46 52 59 62 61 51 62 60 53 48 43 45 43 49 48 45 43 45 37 47 46 45 42 34 43 31 46 51 53 58 60 62 64 66
52 52 52 52 42 45 52 53 52 49 27 51 53 66 62 54 53 55 60 53 43 44 42 40 43 41 41 43 48 41 48 45 45 40 35 39 33 43 49 48 53 57 58 59 58
52 52 52 48 43 47 51 50 49 33 28 47 52 48 47 49 50 52 52 55 52 44 45 43 48 45 43 48 47 49 44 44 45 36 26 35 34 38 44 49 54 53 53 52 52
51 52 49 51 43 49 47 46 33 27 48 40 40 45 43 41 45 45 42 39 34 30 31 39 40 45 48 40 44 42 36 26 21 24 25 41 36 40 48 54 56 49 48 49 49
51 50 48 50 47 48 46 37 27 40 38 45 42 42 38 40 40 40 37 32 40 36 29 25 25 38 44 40 35 36 34 27 19 22 29 41 31 37 46 50 51 50 47 47 46
50 42 41 45 50 47 40 24 31 38 42 38 41 34 34 38 36 36 33 33 38 38 27 27 28 42 43 45 41 37 32 40 31 34 29 34 41 47 48 46 46 45 44 42 43
41 42 43 49 50 44 34 33 38 45 45 42 32 36 28 32 31 31 32 39 37 40 39 34 23 38 42 44 44 40 46 28 29 21 22 32 35 33 36 40 42 39 38 40 41
41 37 45 49 47 39 27 34 41 48 47 40 36 33 33 31 32 29 33 38 38 40 40 36 30 31 37 37 36 37 33 36 35 32 26 25 28 34 34 37 37 38 39 38 38
39 32 46 48 34 34 30 41 45 44 46 42 40 38 33 32 30 30 30 35 41 38 31 34 29 24 30 41 45 42 36 37 26 31 34 30 28 36 35 35 36 37 38 39 38
37 37 46 45 25 27 39 42 45 41 40 39 37 38 37 31 25 31 33 41 41 36 33 35 27 21 25 36 41 36 37 38 38 34 32 28 28 37 35 35 37 35 36 37 36
36 27 35 38 35 34 32 35 36 43 41 40 38 38 33 30 34 28 31 38 40 37 44 38 29 26 22 31 36 32 34 37 38 30 29 27 28 31 32 31 33 34 35 36 35
33 30 38 27 30 33 33 34 33 33 39 39 35 35 31 27 29 28 32 30 35 40 39 34 28 30 30 33 34 34 34 34 33 33 29 27 27 29 29 30 30 33 34 33 31
31 34 37 32 35 31 33 32 32 35 33 32 31 34 32 28 30 26 31 30 30 36 34 36 28 31 28 34 34 31 33 33 33 32 31 30 28 32 32 32 29 29 30 29 29
40 41 36 35 32 29 29 34 33 32 36 38 35 32 32 36 39 38 37 37 37 32 31 31 30 30 27 33 33 27 28 29 29 31 31 25 29 32 27 27 26 26 27 26 27

GFSSW_sfc_temp_105.txt.gz
Temp
59 59 59 59 59 58 58 58 57 57 57 58 58 58 58 58 57 52 49 58 57 64 66 63 62 59 58 53 55 54 41 34 41 46 50 61 59 63 66 63 66 70 68 72 72
59 59 59 59 58 58 58 57 57 57 57 57 58 58 58 57 50 48 59 65 64 66 60 58 56 56 52 51 53 50 38 44 52 52 51 58 54 60 60 61 61 66 72 73 74
59 59 59 58 58 58 57 57 56 57 57 57 57 58 57 56 49 58 66 64 66 65 60 61 61 57 49 49 50 46 45 51 53 56 56 52 56 60 58 57 62 63 66 71 70
59 58 58 58 58 58 57 56 56 57 57 57 57 58 57 51 49 60 66 66 66 62 60 57 55 50 46 46 50 46 54 53 52 57 56 56 60 59 59 60 66 68 68 68 70
58 57 57 57 57 57 56 56 56 56 56 56 57 57 50 47 50 63 67 66 63 63 58 56 52 50 46 49 51 49 52 56 58 59 58 60 57 58 60 65 66 67 66 65 67
57 57 57 57 57 57 56 56 55 55 55 56 57 57 47 42 63 65 63 61 62 59 58 57 55 56 52 50 47 52 52 52 55 56 55 55 57 54 59 63 63 63 63 64 64
57 56 56 56 56 56 56 55 55 55 55 56 57 54 47 48 59 60 61 60 60 60 57 60 58 52 51 49 54 53 47 53 56 52 52 55 52 52 58 62 61 61 61 64 65
57 56 56 55 55 55 54 54 54 54 55 56 57 53 42 61 56 59 58 63 65 63 62 63 61 54 50 52 51 47 45 40 50 52 54 49 44 54 59 56 58 59 63 64 63
57 56 55 54 54 54 54 54 54 55 56 56 48 44 41 63 59 64 65 62 63 62 59 69 59 51 48 41 36 39 34 37 42 51 49 46 43 51 58 59 59 61 61 62 65
56 56 55 54 54 53 53 53 53 53 55 56 55 43 50 55 62 64 63 64 59 57 56 53 47 42 39 37 27 31 32 32 35 43 47 44 43 52 56 57 57 58 60 62 63
56 55 54 54 54 53 47 43 45 43 46 44 46 47 53 59 62 60 65 60 55 52 42 46 39 35 40 42 43 41 38 37 42 48 44 43 44 48 54 54 54 56 56 58 59
54 54 54 54 53 53 45 44 46 47 37 48 49 50 55 56 49 58 61 51 49 42 43 40 34 43 46 44 42 41 37 36 42 47 45 44 43 49 52 53 56 56 58 56 56
54 54 53 53 52 47 44 47 53 50 36 45 51 51 54 56 49 52 57 53 47 41 42 37 42 50 45 42 40 39 36 36 37 44 45 42 40 45 52 55 57 60 57 56 54
53 53 52 52 46 43 46 52 51 50 32 44 49 55 59 58 51 61 61 51 45 41 42 39 46 44 41 39 41 35 43 42 40 36 29 37 27 40 47 50 54 57 48 48 48
52 52 52 52 41 43 50 50 49 45 24 48 51 63 58 52 52 53 58 51 43 43 41 37 40 39 37 40 44 39 44 41 40 35 35 36 30 37 45 44 50 48 48 47 49
52 52 52 47 41 46 48 48 46 31 25 42 48 47 48 50 49 50 49 52 49 42 42 39 45 41 40 44 44 46 40 40 38 34 25 34 31 33 38 45 49 45 45 45 46
52 52 49 49 41 45 46 43 31 24 45 37 39 45 42 40 43 43 41 38 33 28 29 35 37 41 45 37 40 38 32 20 17 21 23 38 33 36 42 45 45 43 42 42 43
51 50 49 49 47 47 43 34 23 37 36 43 41 42 35 40 39 38 35 30 38 34 26 23 24 35 41 37 33 33 31 23 18 19 25 37 29 33 43 45 45 44 42 41 40
50 42 43 47 47 46 38 22 29 35 40 38 39 34 34 38 34 34 31 30 34 36 25 25 26 40 41 42 39 33 26 36 29 31 24 29 38 42 38 37 39 36 38 37 36
42 41 43 48 47 41 31 31 36 43 43 42 32 36 29 31 31 30 29 36 35 38 38 32 23 36 40 41 41 37 41 24 27 19 17 29 32 27 30 32 35 34 34 34 35
41 37 44 48 47 37 26 31 40 46 46 40 35 33 32 29 31 29 31 36 35 36 37 32 29 30 35 32 31 33 32 33 33 31 21 22 24 32 30 31 32 33 34 32 33
40 31 45 47 33 34 30 40 45 44 46 42 40 36 32 32 29 29 29 34 40 36 29 34 25 23 28 39 42 39 34 33 27 26 32 29 23 34 32 32 32 33 35 35 32
35 36 45 44 26 28 38 41 42 40 39 37 36 36 36 31 25 30 31 39 38 34 32 33 27 18 25 34 38 33 34 34 36 34 29 25 23 34 32 32 32 31 32 33 32
35 27 35 38 34 34 33 34 35 41 38 38 36 36 32 29 32 27 30 35 37 35 43 37 27 24 20 28 35 28 31 33 33 29 27 26 24 27 28 28 29 29 31 31 32
35 30 37 27 31 33 33 34 33 32 38 37 34 33 31 26 28 27 30 29 33 38 36 34 26 29 30 32 32 30 31 32 31 33 26 25 24 25 26 26 26 29 30 29 29
33 34 35 31 34 31 33 31 32 34 33 32 31 33 31 27 30 25 30 29 27 33 34 34 25 29 26 33 31 27 28 30 29 30 29 27 23 29 30 29 27 26 27 26 26
38 40 37 35 32 29 29 33 33 32 36 38 34 30 29 33 37 38 39 37 37 32 30 30 27 27 26 31 30 20 25 26 27 28 30 25 25 28 25 25 24 24 25 24 25

GFSSW_sfc_temp_108.txt.gz
Temp
60 59 59 59 59 58 58 58 57 57 57 58 58 58 58 58 56 51 48 58 56 64 65 60 59 57 55 51 52 50 40 33 41 45 48 58 56 60 62 60 63 66 66 69 71
60 60 60 59 58 58 58 57 57 57 57 57 57 58 58 57 49 47 59 64 64 65 60 58 54 55 49 47 49 47 36 40 50 51 50 55 50 57 58 58 59 62 66 70 68
60 60 59 59 58 58 57 57 56 57 57 57 57 57 57 55 50 57 65 64 65 64 59 59 58 55 46 46 47 43 40 48 51 54 53 51 54 57 55 54 58 60 62 67 65
60 59 59 58 58 58 57 56 56 56 57 57 57 58 57 49 48 57 65 65 66 61 59 56 54 47 45 45 46 42 49 50 50 54 54 54 55 55 56 58 63 64 64 63 66
58 58 58 58 57 57 57 56 56 56 56 56 57 57 50 46 51 60 66 66 61 59 56 55 51 49 44 45 47 45 48 51 54 55 54 56 52 54 56 61 63 63 63 61 62
57 57 57 57 57 57 56 56 55 55 55 56 57 57 45 42 59 63 61 60 59 57 56 55 54 54 48 47 44 48 48 49 50 53 52 52 54 52 57 61 61 60 60 61 60
57 57 57 56 56 56 55 55 55 55 55 55 56 54 44 48 57 57 59 56 59 59 55 56 55 50 49 47 50 49 44 46 49 46 48 50 44 47 54 57 57 57 58 59 61
58 57 56 55 55 55 54 54 54 54 55 55 56 51 41 59 53 57 56 59 61 61 59 60 59 53 49 50 48 43 40 35 43 49 50 46 41 50 52 57 56 55 57 60 60
57 57 55 54 54 54 54 54 54 55 55 55 48 43 41 61 56 61 60 60 61 60 57 66 56 48 46 39 34 35 30 31 38 44 45 44 41 47 56 53 53 55 53 55 60
57 56 55 54 54 53 53 53 53 53 54 55 54 41 49 52 59 61 58 60 56 55 53 51 44 39 38 36 26 29 30 28 30 42 44 39 41 49 50 50 52 53 54 55 57
56 55 55 54 54 53 47 46 43 41 44 45 45 45 50 56 59 56 59 56 54 50 42 43 37 32 39 40 40 37 34 33 37 43 40 39 41 46 50 49 49 51 54 55 55
55 54 53 53 54 53 45 45 45 45 38 46 47 47 52 54 47 53 57 50 47 40 41 37 33 42 43 42 40 37 34 32 38 43 41 39 40 46 49 48 50 53 54 55 55
54 54 52 52 52 48 44 47 51 49 35 44 48 48 51 52 46 48 55 50 44 41 40 36 41 46 43 38 37 36 33 34 36 39 40 38 36 41 48 52 54 54 57 50 45
53 51 50 51 46 45 44 51 51 48 32 41 45 51 54 53 47 55 57 52 46 42 43 40 45 44 40 37 40 31 42 40 38 33 28 38 25 38 43 46 50 54 55 44 45
52 51 49 50 45 43 48 50 50 46 25 45 47 58 55 49 48 49 54 50 43 43 43 38 39 38 35 38 42 36 43 39 37 31 30 33 27 35 43 41 45 44 43 43 44
51 51 51 47 42 47 49 47 48 32 25 40 46 44 44 46 45 46 46 50 47 41 40 39 43 42 40 43 43 44 38 37 35 29 22 32 28 30 35 35 38 42 43 43 43
50 50 50 49 43 48 48 45 32 26 43 35 37 41 39 37 39 42 39 35 32 30 29 35 36 38 42 34 38 37 30 18 16 18 20 34 29 31 35 36 36 36 38 39 39
51 50 49 48 47 47 45 35 23 35 35 41 39 38 33 37 36 37 36 32 37 32 26 24 22 33 39 36 30 29 30 23 15 18 22 34 25 31 38 40 38 37 37 36 37
50 43 43 46 46 46 37 24 28 32 39 37 38 32 31 37 35 34 31 30 36 35 25 25 25 37 41 42 38 30 26 34 27 29 22 25 32 38 38 37 36 35 35 33 32
41 41 42 45 47 42 32 31 32 40 41 40 32 34 28 30 31 30 29 36 35 38 37 32 22 36 39 39 38 34 38 23 27 13 15 23 26 23 28 30 33 31 31 31 32
42 37 42 47 46 36 22 30 39 45 44 39 34 32 32 29 30 29 30 36 36 36 37 31 28 29 33 30 28 31 29 30 30 27 19 15 20 31 28 29 29 30 31 30 30
39 27 43 45 32 31 28 38 45 42 45 41 39 37 32 31 29 29 29 34 38 37 28 32 25 23 27 37 39 36 31 30 21 25 30 25 21 32 30 30 30 30 32 32 30
35 35 44 44 27 27 36 39 41 39 38 37 34 36 35 31 26 30 31 38 37 33 31 33 26 17 25 30 37 33 33 34 32 30 28 19 18 31 29 30 30 28 29 30 30
34 27 36 39 33 33 33 35 34 41 38 38 36 36 32 29 32 27 30 34 35 34 42 36 27 22 19 28 33 27 31 32 30 25 25 21 23 25 25 26 27 27 28 28 29
34 28 37 28 30 33 34 35 33 32 37 37 33 33 31 26 28 27 29 27 32 37 34 31 25 26 28 32 32 29 27 28 30 32 26 24 22 23 24 25 25 26 27 27 27
32 33 35 32 35 33 34 32 32 34 33 31 31 32 31 27 29 25 29 28 26 31 32 35 25 27 24 31 30 25 26 26 26 28 25 24 22 27 27 27 25 25 25 25 25
38 40 37 34 32 30 30 32 33 32 35 36 33 31 29 32 36 36 39 35 35 32 30 29 27 25 23 28 28 22 24 25 25 26 28 25 24 27 24 24 22 23 24 23 24